Wetterdaten: Montag, 27.01.2014
Datum Zeit Temp. Aussen +5cm Feuchte Auss Luftdruck Regen Sonnenschein Regendauer UV Solar Windben
27.01.2014 00:00 4,1 C 2,8 C 97 % 989,6 hPa 0,2 l/m 0 min 2 min 0,0 UV-I 0 W/m 18,0 km/h (3 Bft)
27.01.2014 00:02 4,1 C 3,3 C 97 % 989,7 hPa 0,0 l/m 0 min 2 min 0,0 UV-I 0 W/m 0,0 km/h (0 Bft)
27.01.2014 00:04 4,2 C 3,3 C 97 % 989,7 hPa 0,0 l/m 0 min 2 min 0,0 UV-I 0 W/m 0,0 km/h (0 Bft)
27.01.2014 00:06 4,2 C 3,3 C 97 % 989,8 hPa 0,0 l/m 0 min 2 min 0,0 UV-I 0 W/m 0,0 km/h (0 Bft)
27.01.2014 00:08 4,2 C 3,3 C 97 % 989,9 hPa 0,0 l/m 0 min 2 min 0,0 UV-I 0 W/m 0,0 km/h (0 Bft)
27.01.2014 00:10 4,2 C 3,3 C 97 % 989,7 hPa 0,0 l/m 0 min 0 min 0,0 UV-I 0 W/m 0,0 km/h (0 Bft)
27.01.2014 00:12 4,2 C 3,3 C 97 % 989,9 hPa 0,0 l/m 0 min 2 min 0,0 UV-I 0 W/m 0,0 km/h (0 Bft)
27.01.2014 00:14 4,2 C 3,3 C 97 % 989,9 hPa 0,0 l/m 0 min 0 min 0,0 UV-I 0 W/m 0,0 km/h (0 Bft)
27.01.2014 00:16 4,2 C 3,3 C 97 % 989,9 hPa 0,0 l/m 0 min 0 min 0,0 UV-I 0 W/m 5,1 km/h (1 Bft)
27.01.2014 00:18 4,3 C 3,3 C 97 % 989,9 hPa 0,0 l/m 0 min 2 min 0,0 UV-I 0 W/m 10,3 km/h (2 Bft)
27.01.2014 00:20 4,3 C 3,3 C 97 % 990,1 hPa 0,0 l/m 0 min 0 min 0,0 UV-I 0 W/m 0,0 km/h (0 Bft)
27.01.2014 00:22 4,3 C 3,3 C 97 % 990,1 hPa 0,0 l/m 0 min 2 min 0,0 UV-I 0 W/m 2,6 km/h (1 Bft)
27.01.2014 00:24 4,3 C 3,3 C 97 % 990,1 hPa 0,0 l/m 0 min 2 min 0,0 UV-I 0 W/m 5,1 km/h (1 Bft)
27.01.2014 00:26 4,4 C 3,3 C 97 % 990,1 hPa 0,0 l/m 0 min 0 min 0,0 UV-I 0 W/m 2,6 km/h (1 Bft)
27.01.2014 00:28 4,4 C 3,3 C 97 % 990,0 hPa 0,0 l/m 0 min 2 min 0,0 UV-I 0 W/m 7,7 km/h (2 Bft)
27.01.2014 00:30 4,4 C 3,3 C 97 % 990,0 hPa 0,0 l/m 0 min 2 min 0,0 UV-I 0 W/m 0,0 km/h (0 Bft)
27.01.2014 00:32 4,5 C 3,3 C 97 % 990,0 hPa 0,0 l/m 0 min 0 min 0,0 UV-I 0 W/m 5,1 km/h (1 Bft)
27.01.2014 00:34 4,6 C 3,9 C 97 % 990,0 hPa 0,0 l/m 0 min 0 min 0,0 UV-I 0 W/m 7,7 km/h (2 Bft)
27.01.2014 00:36 4,7 C 3,9 C 98 % 990,0 hPa 0,0 l/m 0 min 0 min 0,0 UV-I 0 W/m 12,9 km/h (3 Bft)
27.01.2014 00:38 4,8 C 3,9 C 98 % 990,0 hPa 0,0 l/m 0 min 0 min 0,0 UV-I 0 W/m 7,7 km/h (2 Bft)
27.01.2014 00:40 4,8 C 3,9 C 97 % 990,0 hPa 0,0 l/m 0 min 0 min 0,0 UV-I 0 W/m 10,3 km/h (2 Bft)
27.01.2014 00:42 4,9 C 3,9 C 97 % 990,1 hPa 0,0 l/m 0 min 0 min 0,0 UV-I 0 W/m 0,0 km/h (0 Bft)
27.01.2014 00:44 4,9 C 3,3 C 97 % 990,1 hPa 0,0 l/m 0 min 0 min 0,0 UV-I 0 W/m 0,0 km/h (0 Bft)
27.01.2014 00:46 4,9 C 3,9 C 97 % 990,1 hPa 0,0 l/m 0 min 0 min 0,0 UV-I 0 W/m 2,6 km/h (1 Bft)
27.01.2014 00:48 5,0 C 3,9 C 98 % 990,1 hPa 0,0 l/m 0 min 0 min 0,0 UV-I 0 W/m 2,6 km/h (1 Bft)
27.01.2014 00:50 5,1 C 3,9 C 98 % 990,1 hPa 0,0 l/m 0 min 0 min 0,0 UV-I 0 W/m 7,7 km/h (2 Bft)
27.01.2014 00:52 5,1 C 3,9 C 98 % 990,1 hPa 0,0 l/m 0 min 0 min 0,0 UV-I 0 W/m 2,6 km/h (1 Bft)
27.01.2014 00:54 5,1 C 3,9 C 98 % 990,1 hPa 0,0 l/m 0 min 0 min 0,0 UV-I 0 W/m 5,1 km/h (1 Bft)
27.01.2014 00:56 5,1 C 3,9 C 98 % 990,1 hPa 0,0 l/m 0 min 0 min 0,0 UV-I 0 W/m 5,1 km/h (1 Bft)
27.01.2014 00:58 5,2 C 3,9 C 98 % 990,1 hPa 0,0 l/m 0 min 0 min 0,0 UV-I 0 W/m 0,0 km/h (0 Bft)
27.01.2014 01:00 5,2 C 3,9 C 98 % 990,2 hPa 0,0 l/m 0 min 0 min 0,0 UV-I 0 W/m 2,6 km/h (1 Bft)
27.01.2014 01:02 5,2 C 3,9 C 98 % 990,2 hPa 0,0 l/m 0 min 0 min 0,0 UV-I 0 W/m 7,7 km/h (2 Bft)
27.01.2014 01:04 5,2 C 3,9 C 98 % 990,2 hPa 0,0 l/m 0 min 0 min 0,0 UV-I 0 W/m 5,1 km/h (1 Bft)
27.01.2014 01:06 5,3 C 3,9 C 98 % 990,2 hPa 0,0 l/m 0 min 0 min 0,0 UV-I 0 W/m 10,3 km/h (2 Bft)
27.01.2014 01:08 5,3 C 3,9 C 98 % 990,3 hPa 0,0 l/m 0 min 0 min 0,0 UV-I 0 W/m 0,0 km/h (0 Bft)
27.01.2014 01:10 5,3 C 3,9 C 98 % 990,2 hPa 0,0 l/m 0 min 0 min 0,0 UV-I 0 W/m 7,7 km/h (2 Bft)
27.01.2014 01:12 5,3 C 3,9 C 98 % 990,2 hPa 0,0 l/m 0 min 0 min 0,0 UV-I 0 W/m 7,7 km/h (2 Bft)
27.01.2014 01:14 5,3 C 3,9 C 98 % 990,2 hPa 0,0 l/m 0 min 0 min 0,0 UV-I 0 W/m 12,9 km/h (3 Bft)
27.01.2014 01:16 5,4 C 3,9 C 98 % 990,2 hPa 0,0 l/m 0 min 0 min 0,0 UV-I 0 W/m 10,3 km/h (2 Bft)
27.01.2014 01:18 5,4 C 3,9 C 98 % 990,2 hPa 0,0 l/m 0 min 0 min 0,0 UV-I 0 W/m 12,9 km/h (3 Bft)
27.01.2014 01:20 5,4 C 3,9 C 98 % 990,2 hPa 0,0 l/m 0 min 0 min 0,0 UV-I 0 W/m 5,1 km/h (1 Bft)
27.01.2014 01:22 5,4 C 3,9 C 98 % 990,2 hPa 0,0 l/m 0 min 0 min 0,0 UV-I 0 W/m 5,1 km/h (1 Bft)
27.01.2014 01:24 5,4 C 3,9 C 98 % 990,2 hPa 0,0 l/m 0 min 0 min 0,0 UV-I 0 W/m 5,1 km/h (1 Bft)
27.01.2014 01:26 5,4 C 3,9 C 98 % 990,2 hPa 0,0 l/m 0 min 0 min 0,0 UV-I 0 W/m 10,3 km/h (2 Bft)
27.01.2014 01:28 5,4 C 3,9 C 98 % 990,2 hPa 0,0 l/m 0 min 0 min 0,0 UV-I 0 W/m 7,7 km/h (2 Bft)
27.01.2014 01:30 5,5 C 3,9 C 98 % 990,2 hPa 0,0 l/m 0 min 0 min 0,0 UV-I 0 W/m 7,7 km/h (2 Bft)
27.01.2014 01:32 5,5 C 3,9 C 98 % 990,3 hPa 0,0 l/m 0 min 0 min 0,0 UV-I 0 W/m 12,9 km/h (3 Bft)
27.01.2014 01:34 5,5 C 3,9 C 98 % 990,3 hPa 0,0 l/m 0 min 0 min 0,0 UV-I 0 W/m 7,7 km/h (2 Bft)
27.01.2014 01:36 5,5 C 3,9 C 98 % 990,3 hPa 0,0 l/m 0 min 0 min 0,0 UV-I 0 W/m 7,7 km/h (2 Bft)
27.01.2014 01:38 5,5 C 3,9 C 98 % 990,4 hPa 0,0 l/m 0 min 0 min 0,0 UV-I 0 W/m 2,6 km/h (1 Bft)
27.01.2014 01:40 5,5 C 3,9 C 98 % 990,4 hPa 0,0 l/m 0 min 0 min 0,0 UV-I 0 W/m 10,3 km/h (2 Bft)
27.01.2014 01:42 5,5 C 3,9 C 98 % 990,4 hPa 0,0 l/m 0 min 0 min 0,0 UV-I 0 W/m 7,7 km/h (2 Bft)
27.01.2014 01:44 5,5 C 3,9 C 98 % 990,4 hPa 0,0 l/m 0 min 0 min 0,0 UV-I 0 W/m 12,9 km/h (3 Bft)
27.01.2014 01:46 5,6 C 3,9 C 98 % 990,4 hPa 0,0 l/m 0 min 0 min 0,0 UV-I 0 W/m 12,9 km/h (3 Bft)
27.01.2014 01:48 5,6 C 3,9 C 98 % 990,4 hPa 0,0 l/m 0 min 0 min 0,0 UV-I 0 W/m 10,3 km/h (2 Bft)
27.01.2014 01:50 5,6 C 3,9 C 98 % 990,5 hPa 0,0 l/m 0 min 0 min 0,0 UV-I 0 W/m 10,3 km/h (2 Bft)
27.01.2014 01:52 5,6 C 3,9 C 98 % 990,5 hPa 0,0 l/m 0 min 0 min 0,0 UV-I 0 W/m 10,3 km/h (2 Bft)
27.01.2014 01:54 5,6 C 4,4 C 98 % 990,4 hPa 0,0 l/m 0 min 0 min 0,0 UV-I 0 W/m 12,9 km/h (3 Bft)
27.01.2014 01:56 5,6 C 4,4 C 98 % 990,5 hPa 0,0 l/m 0 min 0 min 0,0 UV-I 0 W/m 20,6 km/h (4 Bft)
27.01.2014 01:58 5,7 C 4,4 C 98 % 990,6 hPa 0,0 l/m 0 min 0 min 0,0 UV-I 0 W/m 7,7 km/h (2 Bft)
27.01.2014 02:00 5,7 C 4,4 C 98 % 990,6 hPa 0,0 l/m 0 min 0 min 0,0 UV-I 0 W/m 7,7 km/h (2 Bft)
27.01.2014 02:02 5,7 C 3,9 C 98 % 990,6 hPa 0,0 l/m 0 min 0 min 0,0 UV-I 0 W/m 20,6 km/h (4 Bft)
27.01.2014 02:04 5,7 C 3,9 C 98 % 990,6 hPa 0,0 l/m 0 min 0 min 0,0 UV-I 0 W/m 12,9 km/h (3 Bft)
27.01.2014 02:06 5,7 C 3,9 C 98 % 990,6 hPa 0,0 l/m 0 min 0 min 0,0 UV-I 0 W/m 10,3 km/h (2 Bft)
27.01.2014 02:08 5,7 C 3,9 C 98 % 990,6 hPa 0,0 l/m 0 min 0 min 0,0 UV-I 0 W/m 12,9 km/h (3 Bft)
27.01.2014 02:10 5,7 C 3,9 C 98 % 990,7 hPa 0,0 l/m 0 min 0 min 0,0 UV-I 0 W/m 10,3 km/h (2 Bft)
27.01.2014 02:12 5,6 C 3,9 C 98 % 990,7 hPa 0,0 l/m 0 min 0 min 0,0 UV-I 0 W/m 25,7 km/h (4 Bft)
27.01.2014 02:14 5,6 C 4,4 C 98 % 990,7 hPa 0,0 l/m 0 min 0 min 0,0 UV-I 0 W/m 2,6 km/h (1 Bft)
27.01.2014 02:16 5,7 C 4,4 C 98 % 991,1 hPa 0,0 l/m 0 min 2 min 0,0 UV-I 0 W/m 10,3 km/h (2 Bft)
27.01.2014 02:18 5,6 C 3,9 C 98 % 991,3 hPa 0,2 l/m 0 min 2 min 0,0 UV-I 0 W/m 25,7 km/h (4 Bft)
27.01.2014 02:20 5,4 C 2,8 C 98 % 991,3 hPa 0,2 l/m 0 min 2 min 0,0 UV-I 0 W/m 25,7 km/h (4 Bft)
27.01.2014 02:22 5,1 C 2,2 C 98 % 991,2 hPa 0,4 l/m 0 min 2 min 0,0 UV-I 0 W/m 18,0 km/h (3 Bft)
27.01.2014 02:24 4,9 C 2,2 C 98 % 991,2 hPa 0,0 l/m 0 min 2 min 0,0 UV-I 0 W/m 10,3 km/h (2 Bft)
27.01.2014 02:26 4,7 C 2,2 C 97 % 991,2 hPa 0,0 l/m 0 min 2 min 0,0 UV-I 0 W/m 12,9 km/h (3 Bft)
27.01.2014 02:28 4,6 C 2,2 C 97 % 991,1 hPa 0,0 l/m 0 min 2 min 0,0 UV-I 0 W/m 10,3 km/h (2 Bft)
27.01.2014 02:30 4,5 C 2,2 C 97 % 991,1 hPa 0,2 l/m 0 min 2 min 0,0 UV-I 0 W/m 7,7 km/h (2 Bft)
27.01.2014 02:32 4,4 C 2,2 C 97 % 991,1 hPa 0,0 l/m 0 min 2 min 0,0 UV-I 0 W/m 10,3 km/h (2 Bft)
27.01.2014 02:34 4,3 C 2,2 C 97 % 991,2 hPa 0,0 l/m 0 min 2 min 0,0 UV-I 0 W/m 12,9 km/h (3 Bft)
27.01.2014 02:36 4,2 C 2,2 C 97 % 991,2 hPa 0,0 l/m 0 min 0 min 0,0 UV-I 0 W/m 10,3 km/h (2 Bft)
27.01.2014 02:38 4,2 C 2,2 C 97 % 991,2 hPa 0,0 l/m 0 min 0 min 0,0 UV-I 0 W/m 10,3 km/h (2 Bft)
27.01.2014 02:40 4,1 C 2,2 C 97 % 991,1 hPa 0,0 l/m 0 min 0 min 0,0 UV-I 0 W/m 12,9 km/h (3 Bft)
27.01.2014 02:42 4,1 C 2,2 C 97 % 991,1 hPa 0,0 l/m 0 min 0 min 0,0 UV-I 0 W/m 10,3 km/h (2 Bft)
27.01.2014 02:44 4,1 C 2,8 C 97 % 991,2 hPa 0,0 l/m 0 min 0 min 0,0 UV-I 0 W/m 7,7 km/h (2 Bft)
27.01.2014 02:46 4,1 C 2,8 C 97 % 991,2 hPa 0,0 l/m 0 min 2 min 0,0 UV-I 0 W/m 10,3 km/h (2 Bft)
27.01.2014 02:48 4,1 C 2,8 C 97 % 991,2 hPa 0,0 l/m 0 min 2 min 0,0 UV-I 0 W/m 12,9 km/h (3 Bft)
27.01.2014 02:50 4,1 C 2,8 C 97 % 991,2 hPa 0,0 l/m 0 min 2 min 0,0 UV-I 0 W/m 2,6 km/h (1 Bft)
27.01.2014 02:52 4,1 C 2,8 C 97 % 991,3 hPa 0,0 l/m 0 min 0 min 0,0 UV-I 0 W/m 5,1 km/h (1 Bft)
27.01.2014 02:54 4,1 C 2,8 C 97 % 991,3 hPa 0,0 l/m 0 min 0 min 0,0 UV-I 0 W/m 10,3 km/h (2 Bft)
27.01.2014 02:56 4,1 C 2,8 C 97 % 991,3 hPa 0,0 l/m 0 min 0 min 0,0 UV-I 0 W/m 10,3 km/h (2 Bft)
27.01.2014 02:58 4,1 C 2,8 C 97 % 991,3 hPa 0,0 l/m 0 min 0 min 0,0 UV-I 0 W/m 10,3 km/h (2 Bft)
27.01.2014 03:00 4,1 C 2,8 C 97 % 991,3 hPa 0,0 l/m 0 min 0 min 0,0 UV-I 0 W/m 12,9 km/h (3 Bft)
27.01.2014 03:02 4,1 C 2,8 C 97 % 991,3 hPa 0,0 l/m 0 min 0 min 0,0 UV-I 0 W/m 20,6 km/h (4 Bft)
27.01.2014 03:04 4,2 C 2,8 C 97 % 991,4 hPa 0,0 l/m 0 min 2 min 0,0 UV-I 0 W/m 15,4 km/h (3 Bft)
27.01.2014 03:06 4,2 C 2,8 C 97 % 991,4 hPa 0,0 l/m 0 min 0 min 0,0 UV-I 0 W/m 10,3 km/h (2 Bft)
27.01.2014 03:08 4,2 C 2,8 C 97 % 991,4 hPa 0,0 l/m 0 min 0 min 0,0 UV-I 0 W/m 10,3 km/h (2 Bft)
27.01.2014 03:10 4,2 C 2,8 C 97 % 991,4 hPa 0,0 l/m 0 min 0 min 0,0 UV-I 0 W/m 12,9 km/h (3 Bft)
27.01.2014 03:12 4,2 C 2,8 C 97 % 991,4 hPa 0,0 l/m 0 min 0 min 0,0 UV-I 0 W/m 2,6 km/h (1 Bft)
27.01.2014 03:14 4,2 C 2,8 C 97 % 991,5 hPa 0,0 l/m 0 min 0 min 0,0 UV-I 0 W/m 12,9 km/h (3 Bft)
27.01.2014 03:16 4,1 C 2,8 C 97 % 991,5 hPa 0,0 l/m 0 min 0 min 0,0 UV-I 0 W/m 7,7 km/h (2 Bft)
27.01.2014 03:18 4,2 C 2,8 C 97 % 991,5 hPa 0,0 l/m 0 min 0 min 0,0 UV-I 0 W/m 12,9 km/h (3 Bft)
27.01.2014 03:20 4,2 C 2,8 C 97 % 991,5 hPa 0,0 l/m 0 min 0 min 0,0 UV-I 0 W/m 10,3 km/h (2 Bft)
27.01.2014 03:22 4,2 C 2,8 C 97 % 991,5 hPa 0,0 l/m 0 min 0 min 0,0 UV-I 0 W/m 12,9 km/h (3 Bft)
27.01.2014 03:24 4,2 C 2,8 C 97 % 991,5 hPa 0,0 l/m 0 min 0 min 0,0 UV-I 0 W/m 10,3 km/h (2 Bft)
27.01.2014 03:26 4,1 C 2,8 C 97 % 991,5 hPa 0,0 l/m 0 min 0 min 0,0 UV-I 0 W/m 5,1 km/h (1 Bft)
27.01.2014 03:28 4,1 C 2,2 C 97 % 991,4 hPa 0,0 l/m 0 min 0 min 0,0 UV-I 0 W/m 10,3 km/h (2 Bft)
27.01.2014 03:30 4,1 C 2,2 C 97 % 991,4 hPa 0,0 l/m 0 min 0 min 0,0 UV-I 0 W/m 5,1 km/h (1 Bft)
27.01.2014 03:32 4,1 C 2,2 C 97 % 991,4 hPa 0,0 l/m 0 min 0 min 0,0 UV-I 0 W/m 0,0 km/h (0 Bft)
27.01.2014 03:34 4,1 C 2,2 C 97 % 991,4 hPa 0,0 l/m 0 min 0 min 0,0 UV-I 0 W/m 2,6 km/h (1 Bft)
27.01.2014 03:36 4,1 C 2,2 C 97 % 991,5 hPa 0,0 l/m 0 min 0 min 0,0 UV-I 0 W/m 12,9 km/h (3 Bft)
27.01.2014 03:38 4,1 C 2,2 C 97 % 991,5 hPa 0,0 l/m 0 min 0 min 0,0 UV-I 0 W/m 10,3 km/h (2 Bft)
27.01.2014 03:40 4,1 C 2,2 C 97 % 991,4 hPa 0,0 l/m 0 min 0 min 0,0 UV-I 0 W/m 2,6 km/h (1 Bft)
27.01.2014 03:42 4,1 C 2,2 C 97 % 991,5 hPa 0,0 l/m 0 min 0 min 0,0 UV-I 0 W/m 0,0 km/h (0 Bft)
27.01.2014 03:44 4,0 C 2,2 C 97 % 991,5 hPa 0,0 l/m 0 min 0 min 0,0 UV-I 0 W/m 7,7 km/h (2 Bft)
27.01.2014 03:46 4,0 C 2,2 C 97 % 991,5 hPa 0,0 l/m 0 min 0 min 0,0 UV-I 0 W/m 0,0 km/h (0 Bft)
27.01.2014 03:48 4,0 C 2,2 C 97 % 991,6 hPa 0,0 l/m 0 min 0 min 0,0 UV-I 0 W/m 2,6 km/h (1 Bft)
27.01.2014 03:50 4,0 C 2,2 C 97 % 991,5 hPa 0,0 l/m 0 min 0 min 0,0 UV-I 0 W/m 7,7 km/h (2 Bft)
27.01.2014 03:52 4,0 C 2,2 C 97 % 991,5 hPa 0,0 l/m 0 min 0 min 0,0 UV-I 0 W/m 5,1 km/h (1 Bft)
27.01.2014 03:54 4,0 C 2,8 C 97 % 991,5 hPa 0,0 l/m 0 min 0 min 0,0 UV-I 0 W/m 0,0 km/h (0 Bft)
27.01.2014 03:56 4,0 C 2,8 C 97 % 991,8 hPa 0,0 l/m 0 min 2 min 0,0 UV-I 0 W/m 10,3 km/h (2 Bft)
27.01.2014 03:58 4,0 C 2,2 C 97 % 991,9 hPa 0,2 l/m 0 min 2 min 0,0 UV-I 0 W/m 20,6 km/h (4 Bft)
27.01.2014 04:00 3,9 C 1,1 C 97 % 991,9 hPa 0,0 l/m 0 min 2 min 0,0 UV-I 0 W/m 18,0 km/h (3 Bft)
27.01.2014 04:02 3,8 C 1,1 C 97 % 991,9 hPa 0,0 l/m 0 min 2 min 0,0 UV-I 0 W/m 12,9 km/h (3 Bft)
27.01.2014 04:04 3,7 C 1,1 C 96 % 991,9 hPa 0,2 l/m 0 min 2 min 0,0 UV-I 0 W/m 15,4 km/h (3 Bft)
27.01.2014 04:06 3,5 C 1,1 C 96 % 991,9 hPa 0,2 l/m 0 min 2 min 0,0 UV-I 0 W/m 18,0 km/h (3 Bft)
27.01.2014 04:08 3,4 C 1,1 C 96 % 991,8 hPa 0,0 l/m 0 min 2 min 0,0 UV-I 0 W/m 12,9 km/h (3 Bft)
27.01.2014 04:10 3,4 C 1,1 C 96 % 991,9 hPa 0,0 l/m 0 min 2 min 0,0 UV-I 0 W/m 10,3 km/h (2 Bft)
27.01.2014 04:12 3,4 C 1,7 C 96 % 991,9 hPa 0,2 l/m 0 min 2 min 0,0 UV-I 0 W/m 18,0 km/h (3 Bft)
27.01.2014 04:14 3,4 C 1,7 C 96 % 991,9 hPa 0,0 l/m 0 min 2 min 0,0 UV-I 0 W/m 23,2 km/h (4 Bft)
27.01.2014 04:16 3,3 C 1,7 C 96 % 991,9 hPa 0,0 l/m 0 min 2 min 0,0 UV-I 0 W/m 20,6 km/h (4 Bft)
27.01.2014 04:18 3,3 C 1,7 C 96 % 991,9 hPa 0,0 l/m 0 min 2 min 0,0 UV-I 0 W/m 12,9 km/h (3 Bft)
27.01.2014 04:20 3,3 C 1,7 C 96 % 991,8 hPa 0,0 l/m 0 min 2 min 0,0 UV-I 0 W/m 10,3 km/h (2 Bft)
27.01.2014 04:22 3,3 C 1,7 C 96 % 991,9 hPa 0,2 l/m 0 min 0 min 0,0 UV-I 0 W/m 20,6 km/h (4 Bft)
27.01.2014 04:24 3,3 C 1,7 C 96 % 991,9 hPa 0,0 l/m 0 min 0 min 0,0 UV-I 0 W/m 12,9 km/h (3 Bft)
27.01.2014 04:26 3,3 C 1,7 C 96 % 991,9 hPa 0,0 l/m 0 min 0 min 0,0 UV-I 0 W/m 18,0 km/h (3 Bft)
27.01.2014 04:28 3,3 C 1,7 C 96 % 992,0 hPa 0,0 l/m 0 min 0 min 0,0 UV-I 0 W/m 10,3 km/h (2 Bft)
27.01.2014 04:30 3,3 C 1,7 C 96 % 992,0 hPa 0,0 l/m 0 min 0 min 0,0 UV-I 0 W/m 15,4 km/h (3 Bft)
27.01.2014 04:32 3,4 C 1,7 C 96 % 992,1 hPa 0,0 l/m 0 min 0 min 0,0 UV-I 0 W/m 12,9 km/h (3 Bft)
27.01.2014 04:34 3,4 C 1,7 C 96 % 992,2 hPa 0,0 l/m 0 min 0 min 0,0 UV-I 0 W/m 5,1 km/h (1 Bft)
27.01.2014 04:36 3,4 C 1,7 C 97 % 992,2 hPa 0,0 l/m 0 min 0 min 0,0 UV-I 0 W/m 5,1 km/h (1 Bft)
27.01.2014 04:38 3,4 C 1,7 C 97 % 992,2 hPa 0,0 l/m 0 min 0 min 0,0 UV-I 0 W/m 0,0 km/h (0 Bft)
27.01.2014 04:40 3,4 C 1,7 C 97 % 992,2 hPa 0,0 l/m 0 min 0 min 0,0 UV-I 0 W/m 7,7 km/h (2 Bft)
27.01.2014 04:42 3,4 C 1,7 C 97 % 992,3 hPa 0,0 l/m 0 min 0 min 0,0 UV-I 0 W/m 7,7 km/h (2 Bft)
27.01.2014 04:44 3,4 C 1,7 C 97 % 992,3 hPa 0,0 l/m 0 min 0 min 0,0 UV-I 0 W/m 5,1 km/h (1 Bft)
27.01.2014 04:46 3,4 C 1,7 C 97 % 992,3 hPa 0,0 l/m 0 min 0 min 0,0 UV-I 0 W/m 0,0 km/h (0 Bft)
27.01.2014 04:48 3,4 C 1,7 C 97 % 992,3 hPa 0,0 l/m 0 min 0 min 0,0 UV-I 0 W/m 15,4 km/h (3 Bft)
27.01.2014 04:50 3,4 C 1,7 C 97 % 992,4 hPa 0,0 l/m 0 min 0 min 0,0 UV-I 0 W/m 33,5 km/h (5 Bft)
27.01.2014 04:52 3,4 C 1,7 C 97 % 992,4 hPa 0,0 l/m 0 min 0 min 0,0 UV-I 0 W/m 20,6 km/h (4 Bft)
27.01.2014 04:54 3,4 C 1,7 C 97 % 992,4 hPa 0,0 l/m 0 min 0 min 0,0 UV-I 0 W/m 7,7 km/h (2 Bft)
27.01.2014 04:56 3,4 C 1,7 C 97 % 992,5 hPa 0,0 l/m 0 min 0 min 0,0 UV-I 0 W/m 12,9 km/h (3 Bft)
27.01.2014 04:58 3,4 C 1,7 C 97 % 992,5 hPa 0,0 l/m 0 min 0 min 0,0 UV-I 0 W/m 12,9 km/h (3 Bft)
27.01.2014 05:00 3,4 C 1,7 C 97 % 992,6 hPa 0,0 l/m 0 min 0 min 0,0 UV-I 0 W/m 7,7 km/h (2 Bft)
27.01.2014 05:02 3,4 C 1,7 C 97 % 992,6 hPa 0,0 l/m 0 min 0 min 0,0 UV-I 0 W/m 23,2 km/h (4 Bft)
27.01.2014 05:04 3,4 C 1,7 C 97 % 992,7 hPa 0,0 l/m 0 min 0 min 0,0 UV-I 0 W/m 15,4 km/h (3 Bft)
27.01.2014 05:06 3,4 C 1,7 C 97 % 992,8 hPa 0,0 l/m 0 min 0 min 0,0 UV-I 0 W/m 7,7 km/h (2 Bft)
27.01.2014 05:08 3,5 C 1,7 C 97 % 992,8 hPa 0,0 l/m 0 min 0 min 0,0 UV-I 0 W/m 10,3 km/h (2 Bft)
27.01.2014 05:10 3,5 C 1,7 C 97 % 992,8 hPa 0,0 l/m 0 min 0 min 0,0 UV-I 0 W/m 15,4 km/h (3 Bft)
27.01.2014 05:12 3,5 C 1,7 C 97 % 992,8 hPa 0,0 l/m 0 min 0 min 0,0 UV-I 0 W/m 12,9 km/h (3 Bft)
27.01.2014 05:14 3,5 C 1,7 C 97 % 992,9 hPa 0,0 l/m 0 min 0 min 0,0 UV-I 0 W/m 5,1 km/h (1 Bft)
27.01.2014 05:16 3,5 C 1,7 C 97 % 992,9 hPa 0,0 l/m 0 min 0 min 0,0 UV-I 0 W/m 7,7 km/h (2 Bft)
27.01.2014 05:18 3,5 C 1,7 C 98 % 993,0 hPa 0,0 l/m 0 min 2 min 0,0 UV-I 0 W/m 7,7 km/h (2 Bft)
27.01.2014 05:20 3,4 C 1,7 C 98 % 993,0 hPa 0,2 l/m 0 min 2 min 0,0 UV-I 0 W/m 18,0 km/h (3 Bft)
27.01.2014 05:22 3,4 C 1,7 C 98 % 993,0 hPa 0,0 l/m 0 min 2 min 0,0 UV-I 0 W/m 18,0 km/h (3 Bft)
27.01.2014 05:24 3,4 C 1,7 C 98 % 993,1 hPa 0,0 l/m 0 min 0 min 0,0 UV-I 0 W/m 12,9 km/h (3 Bft)
27.01.2014 05:26 3,4 C 1,7 C 98 % 993,2 hPa 0,0 l/m 0 min 0 min 0,0 UV-I 0 W/m 15,4 km/h (3 Bft)
27.01.2014 05:28 3,5 C 1,7 C 98 % 993,2 hPa 0,0 l/m 0 min 0 min 0,0 UV-I 0 W/m 15,4 km/h (3 Bft)
27.01.2014 05:30 3,5 C 1,7 C 98 % 993,2 hPa 0,0 l/m 0 min 0 min 0,0 UV-I 0 W/m 18,0 km/h (3 Bft)
27.01.2014 05:32 3,5 C 1,7 C 98 % 993,3 hPa 0,0 l/m 0 min 0 min 0,0 UV-I 0 W/m 7,7 km/h (2 Bft)
27.01.2014 05:34 3,5 C 1,7 C 98 % 993,3 hPa 0,0 l/m 0 min 0 min 0,0 UV-I 0 W/m 10,3 km/h (2 Bft)
27.01.2014 05:36 3,5 C 1,7 C 98 % 993,4 hPa 0,0 l/m 0 min 0 min 0,0 UV-I 0 W/m 12,9 km/h (3 Bft)
27.01.2014 05:38 3,4 C 1,7 C 98 % 993,3 hPa 0,0 l/m 0 min 0 min 0,0 UV-I 0 W/m 7,7 km/h (2 Bft)
27.01.2014 05:40 3,4 C 1,7 C 98 % 993,5 hPa 0,0 l/m 0 min 0 min 0,0 UV-I 0 W/m 10,3 km/h (2 Bft)
27.01.2014 05:42 3,4 C 1,7 C 98 % 993,4 hPa 0,0 l/m 0 min 0 min 0,0 UV-I 0 W/m 10,3 km/h (2 Bft)
27.01.2014 05:44 3,4 C 1,7 C 98 % 993,5 hPa 0,0 l/m 0 min 0 min 0,0 UV-I 0 W/m 10,3 km/h (2 Bft)
27.01.2014 05:46 3,4 C 1,7 C 98 % 993,5 hPa 0,0 l/m 0 min 0 min 0,0 UV-I 0 W/m 10,3 km/h (2 Bft)
27.01.2014 05:48 3,4 C 1,7 C 98 % 993,5 hPa 0,0 l/m 0 min 0 min 0,0 UV-I 0 W/m 10,3 km/h (2 Bft)
27.01.2014 05:50 3,4 C 1,7 C 98 % 993,5 hPa 0,0 l/m 0 min 0 min 0,0 UV-I 0 W/m 10,3 km/h (2 Bft)
27.01.2014 05:52 3,4 C 1,7 C 98 % 993,5 hPa 0,0 l/m 0 min 0 min 0,0 UV-I 0 W/m 5,1 km/h (1 Bft)
27.01.2014 05:54 3,4 C 1,7 C 98 % 993,5 hPa 0,0 l/m 0 min 0 min 0,0 UV-I 0 W/m 18,0 km/h (3 Bft)
27.01.2014 05:56 3,4 C 1,7 C 98 % 993,5 hPa 0,0 l/m 0 min 0 min 0,0 UV-I 0 W/m 10,3 km/h (2 Bft)
27.01.2014 05:58 3,4 C 1,7 C 98 % 993,5 hPa 0,0 l/m 0 min 0 min 0,0 UV-I 0 W/m 2,6 km/h (1 Bft)
27.01.2014 06:00 3,4 C 1,7 C 98 % 993,5 hPa 0,0 l/m 0 min 0 min 0,0 UV-I 0 W/m 7,7 km/h (2 Bft)
27.01.2014 06:02 3,4 C 1,7 C 98 % 993,5 hPa 0,0 l/m 0 min 0 min 0,0 UV-I 0 W/m 7,7 km/h (2 Bft)
27.01.2014 06:04 3,3 C 1,7 C 98 % 993,5 hPa 0,0 l/m 0 min 0 min 0,0 UV-I 0 W/m 2,6 km/h (1 Bft)
27.01.2014 06:06 3,3 C 1,7 C 98 % 993,5 hPa 0,0 l/m 0 min 0 min 0,0 UV-I 0 W/m 10,3 km/h (2 Bft)
27.01.2014 06:08 3,3 C 1,7 C 98 % 993,6 hPa 0,0 l/m 0 min 0 min 0,0 UV-I 0 W/m 7,7 km/h (2 Bft)
27.01.2014 06:10 3,3 C 1,7 C 98 % 993,6 hPa 0,0 l/m 0 min 0 min 0,0 UV-I 0 W/m 5,1 km/h (1 Bft)
27.01.2014 06:12 3,2 C 1,7 C 98 % 993,6 hPa 0,0 l/m 0 min 0 min 0,0 UV-I 0 W/m 12,9 km/h (3 Bft)
27.01.2014 06:14 3,2 C 1,7 C 98 % 993,6 hPa 0,0 l/m 0 min 0 min 0,0 UV-I 0 W/m 2,6 km/h (1 Bft)
27.01.2014 06:16 3,2 C 1,1 C 98 % 993,6 hPa 0,0 l/m 0 min 0 min 0,0 UV-I 0 W/m 7,7 km/h (2 Bft)
27.01.2014 06:18 3,2 C 1,7 C 98 % 993,7 hPa 0,0 l/m 0 min 0 min 0,0 UV-I 0 W/m 7,7 km/h (2 Bft)
27.01.2014 06:20 3,2 C 1,1 C 98 % 993,6 hPa 0,0 l/m 0 min 0 min 0,0 UV-I 0 W/m 12,9 km/h (3 Bft)
27.01.2014 06:22 3,2 C 1,1 C 98 % 993,7 hPa 0,0 l/m 0 min 0 min 0,0 UV-I 0 W/m 18,0 km/h (3 Bft)
27.01.2014 06:24 3,1 C 1,1 C 98 % 993,7 hPa 0,0 l/m 0 min 0 min 0,0 UV-I 0 W/m 2,6 km/h (1 Bft)
27.01.2014 06:26 3,1 C 1,1 C 98 % 993,8 hPa 0,0 l/m 0 min 2 min 0,0 UV-I 0 W/m 2,6 km/h (1 Bft)
27.01.2014 06:28 3,1 C 1,1 C 98 % 993,9 hPa 0,2 l/m 0 min 2 min 0,0 UV-I 0 W/m 18,0 km/h (3 Bft)
27.01.2014 06:30 3,1 C 1,1 C 98 % 993,9 hPa 0,0 l/m 0 min 2 min 0,0 UV-I 0 W/m 7,7 km/h (2 Bft)
27.01.2014 06:32 3,1 C 1,1 C 97 % 993,9 hPa 0,0 l/m 0 min 0 min 0,0 UV-I 0 W/m 5,1 km/h (1 Bft)
27.01.2014 06:34 3,0 C 1,1 C 97 % 993,9 hPa 0,0 l/m 0 min 0 min 0,0 UV-I 0 W/m 2,6 km/h (1 Bft)
27.01.2014 06:36 3,0 C 1,1 C 97 % 994,0 hPa 0,0 l/m 0 min 0 min 0,0 UV-I 0 W/m 5,1 km/h (1 Bft)
27.01.2014 06:38 2,9 C 1,1 C 97 % 994,0 hPa 0,0 l/m 0 min 0 min 0,0 UV-I 0 W/m 5,1 km/h (1 Bft)
27.01.2014 06:40 2,9 C 1,1 C 97 % 993,9 hPa 0,0 l/m 0 min 0 min 0,0 UV-I 0 W/m 12,9 km/h (3 Bft)
27.01.2014 06:42 2,9 C 1,1 C 97 % 993,9 hPa 0,0 l/m 0 min 0 min 0,0 UV-I 0 W/m 12,9 km/h (3 Bft)
27.01.2014 06:44 2,9 C 1,1 C 97 % 993,8 hPa 0,0 l/m 0 min 0 min 0,0 UV-I 0 W/m 10,3 km/h (2 Bft)
27.01.2014 06:46 2,9 C 1,1 C 97 % 993,9 hPa 0,0 l/m 0 min 0 min 0,0 UV-I 0 W/m 10,3 km/h (2 Bft)
27.01.2014 06:48 2,8 C 1,1 C 97 % 993,8 hPa 0,0 l/m 0 min 0 min 0,0 UV-I 0 W/m 18,0 km/h (3 Bft)
27.01.2014 06:50 2,8 C 1,1 C 97 % 993,8 hPa 0,0 l/m 0 min 0 min 0,0 UV-I 0 W/m 10,3 km/h (2 Bft)
27.01.2014 06:52 2,8 C 1,1 C 97 % 993,9 hPa 0,0 l/m 0 min 0 min 0,0 UV-I 0 W/m 5,1 km/h (1 Bft)
27.01.2014 06:54 2,8 C 1,1 C 97 % 993,9 hPa 0,0 l/m 0 min 0 min 0,0 UV-I 0 W/m 10,3 km/h (2 Bft)
27.01.2014 06:56 2,7 C 1,1 C 97 % 993,9 hPa 0,0 l/m 0 min 0 min 0,0 UV-I 0 W/m 7,7 km/h (2 Bft)
27.01.2014 06:58 2,7 C 1,1 C 97 % 993,9 hPa 0,0 l/m 0 min 0 min 0,0 UV-I 0 W/m 5,1 km/h (1 Bft)
27.01.2014 07:00 2,7 C 1,1 C 96 % 993,9 hPa 0,0 l/m 0 min 0 min 0,0 UV-I 0 W/m 15,4 km/h (3 Bft)
27.01.2014 07:02 2,7 C 1,1 C 96 % 993,9 hPa 0,0 l/m 0 min 0 min 0,0 UV-I 0 W/m 12,9 km/h (3 Bft)
27.01.2014 07:04 2,7 C 1,1 C 96 % 993,9 hPa 0,0 l/m 0 min 0 min 0,0 UV-I 0 W/m 7,7 km/h (2 Bft)
27.01.2014 07:06 2,7 C 0,6 C 96 % 993,9 hPa 0,0 l/m 0 min 0 min 0,0 UV-I 0 W/m 2,6 km/h (1 Bft)
27.01.2014 07:08 2,7 C 1,1 C 96 % 994,0 hPa 0,0 l/m 0 min 0 min 0,0 UV-I 0 W/m 10,3 km/h (2 Bft)
27.01.2014 07:10 2,6 C 0,6 C 96 % 994,0 hPa 0,0 l/m 0 min 0 min 0,0 UV-I 0 W/m 5,1 km/h (1 Bft)
27.01.2014 07:12 2,6 C 0,6 C 96 % 994,0 hPa 0,0 l/m 0 min 0 min 0,0 UV-I 0 W/m 7,7 km/h (2 Bft)
27.01.2014 07:14 2,6 C 0,6 C 96 % 994,0 hPa 0,0 l/m 0 min 0 min 0,0 UV-I 0 W/m 10,3 km/h (2 Bft)
27.01.2014 07:16 2,6 C 0,6 C 96 % 994,0 hPa 0,0 l/m 0 min 0 min 0,0 UV-I 0 W/m 10,3 km/h (2 Bft)
27.01.2014 07:18 2,6 C 0,6 C 96 % 993,9 hPa 0,0 l/m 0 min 0 min 0,0 UV-I 0 W/m 0,0 km/h (0 Bft)
27.01.2014 07:20 2,5 C 0,6 C 96 % 994,0 hPa 0,0 l/m 0 min 0 min 0,0 UV-I 0 W/m 2,6 km/h (1 Bft)
27.01.2014 07:22 2,5 C 0,6 C 96 % 994,0 hPa 0,0 l/m 0 min 0 min 0,0 UV-I 0 W/m 7,7 km/h (2 Bft)
27.01.2014 07:24 2,5 C 0,6 C 96 % 994,1 hPa 0,0 l/m 0 min 0 min 0,0 UV-I 0 W/m 7,7 km/h (2 Bft)
27.01.2014 07:26 2,4 C 0,6 C 95 % 994,1 hPa 0,0 l/m 0 min 0 min 0,0 UV-I 0 W/m 10,3 km/h (2 Bft)
27.01.2014 07:28 2,4 C 0,6 C 95 % 994,0 hPa 0,0 l/m 0 min 0 min 0,0 UV-I 0 W/m 5,1 km/h (1 Bft)
27.01.2014 07:30 2,4 C 0,6 C 95 % 994,1 hPa 0,0 l/m 0 min 0 min 0,0 UV-I 0 W/m 5,1 km/h (1 Bft)
27.01.2014 07:32 2,4 C 0,6 C 95 % 994,1 hPa 0,0 l/m 0 min 0 min 0,0 UV-I 0 W/m 5,1 km/h (1 Bft)
27.01.2014 07:34 2,4 C 0,6 C 95 % 994,2 hPa 0,0 l/m 0 min 0 min 0,0 UV-I 0 W/m 2,6 km/h (1 Bft)
27.01.2014 07:36 2,4 C 0,6 C 95 % 994,1 hPa 0,0 l/m 0 min 0 min 0,0 UV-I 0 W/m 0,0 km/h (0 Bft)
27.01.2014 07:38 2,4 C 0,6 C 95 % 994,1 hPa 0,0 l/m 0 min 0 min 0,0 UV-I 0 W/m 10,3 km/h (2 Bft)
27.01.2014 07:40 2,3 C 0,6 C 95 % 994,1 hPa 0,0 l/m 0 min 0 min 0,0 UV-I 0 W/m 7,7 km/h (2 Bft)
27.01.2014 07:42 2,3 C 0,6 C 95 % 994,1 hPa 0,0 l/m 0 min 0 min 0,0 UV-I 0 W/m 0,0 km/h (0 Bft)
27.01.2014 07:44 2,3 C 0,6 C 95 % 994,1 hPa 0,0 l/m 0 min 0 min 0,0 UV-I 0 W/m 7,7 km/h (2 Bft)
27.01.2014 07:46 2,3 C 0,6 C 94 % 994,1 hPa 0,0 l/m 0 min 0 min 0,0 UV-I 0 W/m 15,4 km/h (3 Bft)
27.01.2014 07:48 2,3 C 0,6 C 94 % 994,2 hPa 0,0 l/m 0 min 0 min 0,0 UV-I 0 W/m 5,1 km/h (1 Bft)
27.01.2014 07:50 2,3 C 0,6 C 94 % 994,1 hPa 0,0 l/m 0 min 0 min 0,0 UV-I 0 W/m 7,7 km/h (2 Bft)
27.01.2014 07:52 2,3 C 0,6 C 94 % 994,1 hPa 0,0 l/m 0 min 0 min 0,0 UV-I 0 W/m 15,4 km/h (3 Bft)
27.01.2014 07:54 2,3 C 0,6 C 94 % 994,2 hPa 0,0 l/m 0 min 0 min 0,0 UV-I 0 W/m 10,3 km/h (2 Bft)
27.01.2014 07:56 2,3 C 0,6 C 94 % 994,3 hPa 0,0 l/m 0 min 0 min 0,0 UV-I 0 W/m 10,3 km/h (2 Bft)
27.01.2014 07:58 2,3 C 0,6 C 94 % 994,3 hPa 0,0 l/m 0 min 0 min 0,0 UV-I 0 W/m 10,3 km/h (2 Bft)
27.01.2014 08:00 2,3 C 0,6 C 94 % 994,3 hPa 0,0 l/m 0 min 0 min 0,0 UV-I 0 W/m 18,0 km/h (3 Bft)
27.01.2014 08:02 2,3 C 0,6 C 94 % 994,3 hPa 0,0 l/m 0 min 0 min 0,0 UV-I 0 W/m 10,3 km/h (2 Bft)
27.01.2014 08:04 2,3 C 1,1 C 94 % 994,3 hPa 0,0 l/m 0 min 0 min 0,0 UV-I 0 W/m 12,9 km/h (3 Bft)
27.01.2014 08:06 2,3 C 1,1 C 94 % 994,3 hPa 0,0 l/m 0 min 0 min 0,0 UV-I 0 W/m 12,9 km/h (3 Bft)
27.01.2014 08:08 2,3 C 1,1 C 94 % 994,2 hPa 0,0 l/m 0 min 0 min 0,0 UV-I 0 W/m 7,7 km/h (2 Bft)
27.01.2014 08:10 2,3 C 1,1 C 94 % 994,3 hPa 0,0 l/m 0 min 0 min 0,0 UV-I 0 W/m 5,1 km/h (1 Bft)
27.01.2014 08:12 2,3 C 1,1 C 94 % 994,3 hPa 0,0 l/m 0 min 0 min 0,0 UV-I 0 W/m 2,6 km/h (1 Bft)
27.01.2014 08:14 2,4 C 1,1 C 94 % 994,3 hPa 0,0 l/m 0 min 0 min 0,0 UV-I 0 W/m 7,7 km/h (2 Bft)
27.01.2014 08:16 2,4 C 1,1 C 94 % 994,4 hPa 0,0 l/m 0 min 0 min 0,0 UV-I 0 W/m 12,9 km/h (3 Bft)
27.01.2014 08:18 2,4 C 1,1 C 94 % 994,3 hPa 0,0 l/m 0 min 0 min 0,0 UV-I 0 W/m 12,9 km/h (3 Bft)
27.01.2014 08:20 2,4 C 1,1 C 93 % 994,4 hPa 0,0 l/m 0 min 0 min 0,0 UV-I 5 W/m 10,3 km/h (2 Bft)
27.01.2014 08:22 2,4 C 1,1 C 93 % 994,4 hPa 0,0 l/m 0 min 0 min 0,0 UV-I 5 W/m 12,9 km/h (3 Bft)
27.01.2014 08:24 2,4 C 1,1 C 93 % 994,4 hPa 0,0 l/m 0 min 0 min 0,0 UV-I 5 W/m 10,3 km/h (2 Bft)
27.01.2014 08:26 2,4 C 1,1 C 93 % 994,4 hPa 0,0 l/m 0 min 0 min 0,0 UV-I 5 W/m 10,3 km/h (2 Bft)
27.01.2014 08:28 2,4 C 1,1 C 93 % 994,4 hPa 0,0 l/m 0 min 0 min 0,0 UV-I 5 W/m 10,3 km/h (2 Bft)
27.01.2014 08:30 2,4 C 1,1 C 93 % 994,5 hPa 0,0 l/m 0 min 0 min 0,0 UV-I 7 W/m 15,4 km/h (3 Bft)
27.01.2014 08:32 2,4 C 1,1 C 93 % 994,4 hPa 0,0 l/m 0 min 0 min 0,0 UV-I 7 W/m 18,0 km/h (3 Bft)
27.01.2014 08:34 2,4 C 1,1 C 93 % 994,4 hPa 0,0 l/m 0 min 0 min 0,0 UV-I 7 W/m 23,2 km/h (4 Bft)
27.01.2014 08:36 2,4 C 1,1 C 93 % 994,4 hPa 0,0 l/m 0 min 0 min 0,0 UV-I 7 W/m 10,3 km/h (2 Bft)
27.01.2014 08:38 2,4 C 1,1 C 93 % 994,5 hPa 0,0 l/m 0 min 0 min 0,0 UV-I 9 W/m 10,3 km/h (2 Bft)
27.01.2014 08:40 2,4 C 1,1 C 93 % 994,5 hPa 0,0 l/m 0 min 0 min 0,0 UV-I 9 W/m 25,7 km/h (4 Bft)
27.01.2014 08:42 2,4 C 1,1 C 93 % 994,5 hPa 0,0 l/m 0 min 0 min 0,0 UV-I 9 W/m 10,3 km/h (2 Bft)
27.01.2014 08:44 2,4 C 1,1 C 93 % 994,6 hPa 0,0 l/m 0 min 0 min 0,0 UV-I 11 W/m 12,9 km/h (3 Bft)
27.01.2014 08:46 2,4 C 1,1 C 93 % 994,6 hPa 0,0 l/m 0 min 0 min 0,0 UV-I 12 W/m 7,7 km/h (2 Bft)
27.01.2014 08:48 2,4 C 1,1 C 93 % 994,7 hPa 0,0 l/m 0 min 0 min 0,0 UV-I 12 W/m 2,6 km/h (1 Bft)
27.01.2014 08:50 2,4 C 1,1 C 93 % 994,7 hPa 0,0 l/m 0 min 0 min 0,0 UV-I 14 W/m 15,4 km/h (3 Bft)
27.01.2014 08:52 2,4 C 1,1 C 92 % 994,6 hPa 0,0 l/m 0 min 0 min 0,0 UV-I 16 W/m 10,3 km/h (2 Bft)
27.01.2014 08:54 2,4 C 1,1 C 92 % 994,6 hPa 0,0 l/m 0 min 0 min 0,0 UV-I 18 W/m 12,9 km/h (3 Bft)
27.01.2014 08:56 2,4 C 1,1 C 92 % 994,7 hPa 0,0 l/m 0 min 0 min 0,0 UV-I 21 W/m 15,4 km/h (3 Bft)
27.01.2014 08:58 2,4 C 1,1 C 92 % 994,6 hPa 0,0 l/m 0 min 0 min 0,0 UV-I 23 W/m 10,3 km/h (2 Bft)
27.01.2014 09:00 2,5 C 1,1 C 92 % 994,6 hPa 0,0 l/m 0 min 0 min 0,0 UV-I 23 W/m 12,9 km/h (3 Bft)
27.01.2014 09:02 2,5 C 1,1 C 92 % 994,5 hPa 0,0 l/m 0 min 0 min 0,0 UV-I 25 W/m 20,6 km/h (4 Bft)
27.01.2014 09:04 2,5 C 1,1 C 92 % 994,5 hPa 0,0 l/m 0 min 0 min 0,0 UV-I 26 W/m 7,7 km/h (2 Bft)
27.01.2014 09:06 2,5 C 1,1 C 92 % 994,6 hPa 0,0 l/m 0 min 0 min 0,0 UV-I 26 W/m 10,3 km/h (2 Bft)
27.01.2014 09:08 2,5 C 1,1 C 92 % 994,6 hPa 0,0 l/m 0 min 0 min 0,0 UV-I 25 W/m 20,6 km/h (4 Bft)
27.01.2014 09:10 2,5 C 1,1 C 92 % 994,7 hPa 0,0 l/m 0 min 0 min 0,0 UV-I 26 W/m 25,7 km/h (4 Bft)
27.01.2014 09:12 2,5 C 1,1 C 92 % 994,6 hPa 0,0 l/m 0 min 0 min 0,0 UV-I 28 W/m 15,4 km/h (3 Bft)
27.01.2014 09:14 2,5 C 1,1 C 92 % 994,6 hPa 0,0 l/m 0 min 0 min 0,0 UV-I 30 W/m 15,4 km/h (3 Bft)
27.01.2014 09:16 2,5 C 1,1 C 92 % 994,7 hPa 0,0 l/m 0 min 0 min 0,0 UV-I 30 W/m 18,0 km/h (3 Bft)
27.01.2014 09:18 2,6 C 1,1 C 92 % 994,7 hPa 0,0 l/m 0 min 0 min 0,0 UV-I 32 W/m 12,9 km/h (3 Bft)
27.01.2014 09:20 2,6 C 1,1 C 92 % 994,7 hPa 0,0 l/m 0 min 0 min 0,0 UV-I 35 W/m 10,3 km/h (2 Bft)
27.01.2014 09:22 2,6 C 1,1 C 92 % 994,8 hPa 0,0 l/m 0 min 0 min 0,0 UV-I 37 W/m 15,4 km/h (3 Bft)
27.01.2014 09:24 2,6 C 1,1 C 92 % 994,8 hPa 0,0 l/m 0 min 0 min 0,0 UV-I 42 W/m 10,3 km/h (2 Bft)
27.01.2014 09:26 2,6 C 1,1 C 92 % 994,9 hPa 0,0 l/m 0 min 0 min 0,0 UV-I 49 W/m 15,4 km/h (3 Bft)
27.01.2014 09:28 2,6 C 1,1 C 92 % 994,9 hPa 0,0 l/m 0 min 0 min 0,0 UV-I 60 W/m 7,7 km/h (2 Bft)
27.01.2014 09:30 2,6 C 1,7 C 92 % 995,0 hPa 0,0 l/m 0 min 0 min 0,0 UV-I 44 W/m 7,7 km/h (2 Bft)
27.01.2014 09:32 2,6 C 1,7 C 92 % 994,9 hPa 0,0 l/m 0 min 0 min 0,0 UV-I 46 W/m 10,3 km/h (2 Bft)
27.01.2014 09:34 2,6 C 1,7 C 92 % 995,0 hPa 0,0 l/m 0 min 0 min 0,0 UV-I 53 W/m 0,0 km/h (0 Bft)
27.01.2014 09:36 2,7 C 1,7 C 92 % 994,9 hPa 0,0 l/m 0 min 0 min 0,0 UV-I 53 W/m 2,6 km/h (1 Bft)
27.01.2014 09:38 2,7 C 1,7 C 92 % 994,9 hPa 0,0 l/m 0 min 0 min 0,0 UV-I 53 W/m 18,0 km/h (3 Bft)
27.01.2014 09:40 2,7 C 1,7 C 92 % 994,9 hPa 0,0 l/m 0 min 0 min 0,0 UV-I 51 W/m 18,0 km/h (3 Bft)
27.01.2014 09:42 2,7 C 1,7 C 92 % 995,0 hPa 0,0 l/m 0 min 0 min 0,0 UV-I 46 W/m 15,4 km/h (3 Bft)
27.01.2014 09:44 2,7 C 2,2 C 92 % 995,1 hPa 0,0 l/m 0 min 0 min 0,0 UV-I 51 W/m 10,3 km/h (2 Bft)
27.01.2014 09:46 2,8 C 2,2 C 92 % 995,2 hPa 0,0 l/m 0 min 0 min 0,0 UV-I 47 W/m 20,6 km/h (4 Bft)
27.01.2014 09:48 2,8 C 2,2 C 92 % 995,2 hPa 0,0 l/m 0 min 0 min 0,0 UV-I 44 W/m 25,7 km/h (4 Bft)
27.01.2014 09:50 2,8 C 2,2 C 92 % 995,2 hPa 0,0 l/m 0 min 0 min 0,0 UV-I 40 W/m 15,4 km/h (3 Bft)
27.01.2014 09:52 2,9 C 2,2 C 92 % 995,2 hPa 0,0 l/m 0 min 0 min 0,0 UV-I 40 W/m 15,4 km/h (3 Bft)
27.01.2014 09:54 2,9 C 2,2 C 92 % 995,1 hPa 0,0 l/m 0 min 0 min 0,0 UV-I 42 W/m 15,4 km/h (3 Bft)
27.01.2014 09:56 2,9 C 2,2 C 92 % 995,1 hPa 0,0 l/m 0 min 0 min 0,0 UV-I 44 W/m 12,9 km/h (3 Bft)
27.01.2014 09:58 2,9 C 2,2 C 92 % 995,2 hPa 0,0 l/m 0 min 0 min 0,0 UV-I 46 W/m 10,3 km/h (2 Bft)
27.01.2014 10:00 2,9 C 2,2 C 91 % 995,2 hPa 0,0 l/m 0 min 0 min 0,0 UV-I 44 W/m 12,9 km/h (3 Bft)
27.01.2014 10:02 3,0 C 2,2 C 91 % 995,2 hPa 0,0 l/m 0 min 0 min 0,0 UV-I 37 W/m 10,3 km/h (2 Bft)
27.01.2014 10:04 3,0 C 2,2 C 92 % 995,2 hPa 0,0 l/m 0 min 0 min 0,0 UV-I 40 W/m 12,9 km/h (3 Bft)
27.01.2014 10:06 3,0 C 2,2 C 92 % 995,2 hPa 0,0 l/m 0 min 0 min 0,0 UV-I 33 W/m 18,0 km/h (3 Bft)
27.01.2014 10:08 3,1 C 2,2 C 92 % 995,3 hPa 0,0 l/m 0 min 0 min 0,0 UV-I 30 W/m 10,3 km/h (2 Bft)
27.01.2014 10:10 3,1 C 2,2 C 91 % 995,3 hPa 0,0 l/m 0 min 0 min 0,0 UV-I 33 W/m 18,0 km/h (3 Bft)
27.01.2014 10:12 3,1 C 2,2 C 91 % 995,3 hPa 0,0 l/m 0 min 0 min 0,0 UV-I 33 W/m 15,4 km/h (3 Bft)
27.01.2014 10:14 3,1 C 2,2 C 91 % 995,2 hPa 0,0 l/m 0 min 0 min 0,0 UV-I 32 W/m 12,9 km/h (3 Bft)
27.01.2014 10:16 3,1 C 2,2 C 91 % 995,2 hPa 0,0 l/m 0 min 0 min 0,0 UV-I 39 W/m 15,4 km/h (3 Bft)
27.01.2014 10:18 3,2 C 2,2 C 91 % 995,2 hPa 0,0 l/m 0 min 0 min 0,0 UV-I 44 W/m 15,4 km/h (3 Bft)
27.01.2014 10:20 3,2 C 2,2 C 91 % 995,2 hPa 0,0 l/m 0 min 0 min 0,0 UV-I 53 W/m 7,7 km/h (2 Bft)
27.01.2014 10:22 3,2 C 2,2 C 91 % 995,2 hPa 0,0 l/m 0 min 0 min 0,0 UV-I 46 W/m 10,3 km/h (2 Bft)
27.01.2014 10:24 3,2 C 2,2 C 91 % 995,2 hPa 0,0 l/m 0 min 0 min 0,0 UV-I 47 W/m 10,3 km/h (2 Bft)
27.01.2014 10:26 3,2 C 2,2 C 91 % 995,2 hPa 0,0 l/m 0 min 0 min 0,0 UV-I 44 W/m 18,0 km/h (3 Bft)
27.01.2014 10:28 3,2 C 2,2 C 91 % 995,3 hPa 0,0 l/m 0 min 0 min 0,0 UV-I 51 W/m 23,2 km/h (4 Bft)
27.01.2014 10:30 3,2 C 2,2 C 91 % 995,2 hPa 0,0 l/m 0 min 0 min 0,0 UV-I 56 W/m 12,9 km/h (3 Bft)
27.01.2014 10:32 3,2 C 2,2 C 91 % 995,2 hPa 0,0 l/m 0 min 0 min 0,0 UV-I 62 W/m 10,3 km/h (2 Bft)
27.01.2014 10:34 3,2 C 2,2 C 91 % 995,2 hPa 0,0 l/m 0 min 0 min 0,0 UV-I 67 W/m 7,7 km/h (2 Bft)
27.01.2014 10:36 3,3 C 2,2 C 91 % 995,2 hPa 0,0 l/m 0 min 0 min 0,0 UV-I 74 W/m 7,7 km/h (2 Bft)
27.01.2014 10:38 3,3 C 2,8 C 91 % 995,1 hPa 0,0 l/m 0 min 0 min 0,0 UV-I 77 W/m 20,6 km/h (4 Bft)
27.01.2014 10:40 3,3 C 2,8 C 91 % 995,1 hPa 0,0 l/m 0 min 0 min 0,0 UV-I 81 W/m 18,0 km/h (3 Bft)
27.01.2014 10:42 3,4 C 2,8 C 91 % 995,2 hPa 0,0 l/m 0 min 0 min 0,0 UV-I 88 W/m 15,4 km/h (3 Bft)
27.01.2014 10:44 3,4 C 2,8 C 91 % 995,2 hPa 0,0 l/m 0 min 0 min 0,0 UV-I 91 W/m 5,1 km/h (1 Bft)
27.01.2014 10:46 3,4 C 2,8 C 90 % 995,2 hPa 0,0 l/m 0 min 0 min 0,0 UV-I 91 W/m 15,4 km/h (3 Bft)
27.01.2014 10:48 3,5 C 2,8 C 90 % 995,2 hPa 0,0 l/m 0 min 0 min 0,0 UV-I 93 W/m 2,6 km/h (1 Bft)
27.01.2014 10:50 3,5 C 2,8 C 90 % 995,1 hPa 0,0 l/m 0 min 0 min 0,0 UV-I 97 W/m 0,0 km/h (0 Bft)
27.01.2014 10:52 3,5 C 2,8 C 90 % 995,2 hPa 0,0 l/m 0 min 0 min 0,0 UV-I 98 W/m 12,9 km/h (3 Bft)
27.01.2014 10:54 3,5 C 2,8 C 90 % 995,2 hPa 0,0 l/m 0 min 0 min 0,0 UV-I 98 W/m 15,4 km/h (3 Bft)
27.01.2014 10:56 3,6 C 2,8 C 90 % 995,1 hPa 0,0 l/m 0 min 0 min 0,0 UV-I 97 W/m 18,0 km/h (3 Bft)
27.01.2014 10:58 3,6 C 2,8 C 89 % 995,1 hPa 0,0 l/m 0 min 0 min 0,0 UV-I 95 W/m 12,9 km/h (3 Bft)
27.01.2014 11:00 3,6 C 2,8 C 89 % 995,3 hPa 0,0 l/m 0 min 0 min 0,0 UV-I 95 W/m 12,9 km/h (3 Bft)
27.01.2014 11:02 3,6 C 2,8 C 89 % 995,2 hPa 0,0 l/m 0 min 0 min 0,0 UV-I 100 W/m 0,0 km/h (0 Bft)
27.01.2014 11:04 3,6 C 2,8 C 89 % 995,3 hPa 0,0 l/m 0 min 0 min 0,0 UV-I 104 W/m 7,7 km/h (2 Bft)
27.01.2014 11:06 3,6 C 2,8 C 89 % 995,3 hPa 0,0 l/m 0 min 0 min 0,0 UV-I 86 W/m 10,3 km/h (2 Bft)
27.01.2014 11:08 3,6 C 2,8 C 89 % 995,3 hPa 0,0 l/m 0 min 0 min 0,0 UV-I 81 W/m 7,7 km/h (2 Bft)
27.01.2014 11:10 3,6 C 2,8 C 89 % 995,2 hPa 0,0 l/m 0 min 0 min 0,0 UV-I 83 W/m 12,9 km/h (3 Bft)
27.01.2014 11:12 3,7 C 2,8 C 89 % 995,3 hPa 0,0 l/m 0 min 0 min 0,0 UV-I 114 W/m 18,0 km/h (3 Bft)
27.01.2014 11:14 3,7 C 3,3 C 89 % 995,3 hPa 0,0 l/m 0 min 0 min 0,0 UV-I 127 W/m 7,7 km/h (2 Bft)
27.01.2014 11:16 3,7 C 3,3 C 89 % 995,3 hPa 0,0 l/m 0 min 0 min 0,0 UV-I 132 W/m 12,9 km/h (3 Bft)
27.01.2014 11:18 3,7 C 3,3 C 89 % 995,2 hPa 0,0 l/m 0 min 0 min 0,0 UV-I 114 W/m 15,4 km/h (3 Bft)
27.01.2014 11:20 3,7 C 3,3 C 89 % 995,2 hPa 0,0 l/m 0 min 2 min 0,0 UV-I 102 W/m 10,3 km/h (2 Bft)
27.01.2014 11:22 3,8 C 3,3 C 89 % 995,2 hPa 0,2 l/m 0 min 2 min 0,0 UV-I 123 W/m 12,9 km/h (3 Bft)
27.01.2014 11:24 3,8 C 3,3 C 89 % 995,2 hPa 0,0 l/m 0 min 2 min 0,0 UV-I 125 W/m 10,3 km/h (2 Bft)
27.01.2014 11:26 3,8 C 3,3 C 89 % 995,3 hPa 0,0 l/m 0 min 0 min 0,0 UV-I 123 W/m 7,7 km/h (2 Bft)
27.01.2014 11:28 3,8 C 3,3 C 89 % 995,2 hPa 0,0 l/m 0 min 0 min 0,0 UV-I 107 W/m 5,1 km/h (1 Bft)
27.01.2014 11:30 3,8 C 3,3 C 89 % 995,3 hPa 0,0 l/m 0 min 0 min 0,0 UV-I 91 W/m 5,1 km/h (1 Bft)
27.01.2014 11:32 3,8 C 3,3 C 88 % 995,2 hPa 0,0 l/m 0 min 0 min 0,0 UV-I 83 W/m 23,2 km/h (4 Bft)
27.01.2014 11:34 3,8 C 3,3 C 88 % 995,3 hPa 0,0 l/m 0 min 0 min 0,0 UV-I 93 W/m 12,9 km/h (3 Bft)
27.01.2014 11:36 3,8 C 3,3 C 88 % 995,2 hPa 0,0 l/m 0 min 0 min 0,0 UV-I 97 W/m 15,4 km/h (3 Bft)
27.01.2014 11:38 3,8 C 3,3 C 88 % 995,2 hPa 0,0 l/m 0 min 0 min 0,0 UV-I 84 W/m 23,2 km/h (4 Bft)
27.01.2014 11:40 3,8 C 2,8 C 88 % 995,1 hPa 0,0 l/m 0 min 0 min 0,0 UV-I 95 W/m 18,0 km/h (3 Bft)
27.01.2014 11:42 3,7 C 2,8 C 88 % 995,1 hPa 0,0 l/m 0 min 0 min 0,0 UV-I 83 W/m 23,2 km/h (4 Bft)
27.01.2014 11:44 3,7 C 2,8 C 88 % 995,1 hPa 0,0 l/m 0 min 0 min 0,0 UV-I 65 W/m 20,6 km/h (4 Bft)
27.01.2014 11:46 3,7 C 2,8 C 88 % 995,1 hPa 0,0 l/m 0 min 0 min 0,0 UV-I 46 W/m 5,1 km/h (1 Bft)
27.01.2014 11:48 3,7 C 2,8 C 88 % 995,1 hPa 0,0 l/m 0 min 0 min 0,0 UV-I 46 W/m 18,0 km/h (3 Bft)
27.01.2014 11:50 3,6 C 2,8 C 88 % 995,1 hPa 0,0 l/m 0 min 0 min 0,0 UV-I 53 W/m 33,5 km/h (5 Bft)
27.01.2014 11:52 3,6 C 2,8 C 88 % 995,0 hPa 0,0 l/m 0 min 0 min 0,0 UV-I 60 W/m 20,6 km/h (4 Bft)
27.01.2014 11:54 3,6 C 2,8 C 88 % 995,1 hPa 0,0 l/m 0 min 0 min 0,0 UV-I 60 W/m 7,7 km/h (2 Bft)
27.01.2014 11:56 3,6 C 2,8 C 88 % 995,0 hPa 0,0 l/m 0 min 2 min 0,0 UV-I 60 W/m 23,2 km/h (4 Bft)
27.01.2014 11:58 3,6 C 2,8 C 88 % 995,1 hPa 0,0 l/m 0 min 0 min 0,0 UV-I 67 W/m 12,9 km/h (3 Bft)
27.01.2014 12:00 3,5 C 2,8 C 88 % 995,1 hPa 0,0 l/m 0 min 0 min 0,0 UV-I 67 W/m 12,9 km/h (3 Bft)
27.01.2014 12:02 3,5 C 2,8 C 88 % 995,1 hPa 0,0 l/m 0 min 0 min 0,0 UV-I 63 W/m 12,9 km/h (3 Bft)
27.01.2014 12:04 3,5 C 2,8 C 88 % 995,1 hPa 0,0 l/m 0 min 0 min 0,0 UV-I 54 W/m 18,0 km/h (3 Bft)
27.01.2014 12:06 3,6 C 2,8 C 88 % 995,1 hPa 0,0 l/m 0 min 0 min 0,0 UV-I 67 W/m 18,0 km/h (3 Bft)
27.01.2014 12:08 3,5 C 2,8 C 88 % 995,1 hPa 0,0 l/m 0 min 0 min 0,0 UV-I 74 W/m 20,6 km/h (4 Bft)
27.01.2014 12:10 3,5 C 2,8 C 88 % 995,2 hPa 0,0 l/m 0 min 0 min 0,0 UV-I 90 W/m 18,0 km/h (3 Bft)
27.01.2014 12:12 3,5 C 2,8 C 88 % 995,1 hPa 0,0 l/m 0 min 0 min 0,0 UV-I 114 W/m 15,4 km/h (3 Bft)
27.01.2014 12:14 3,6 C 2,8 C 88 % 995,1 hPa 0,0 l/m 0 min 0 min 0,0 UV-I 120 W/m 12,9 km/h (3 Bft)
27.01.2014 12:16 3,6 C 2,8 C 89 % 995,1 hPa 0,0 l/m 0 min 0 min 0,0 UV-I 111 W/m 12,9 km/h (3 Bft)
27.01.2014 12:18 3,6 C 2,8 C 89 % 995,0 hPa 0,0 l/m 0 min 0 min 0,0 UV-I 104 W/m 10,3 km/h (2 Bft)
27.01.2014 12:20 3,6 C 2,8 C 89 % 995,1 hPa 0,0 l/m 0 min 0 min 0,0 UV-I 91 W/m 10,3 km/h (2 Bft)
27.01.2014 12:22 3,6 C 2,8 C 89 % 995,1 hPa 0,0 l/m 0 min 0 min 0,0 UV-I 83 W/m 23,2 km/h (4 Bft)
27.01.2014 12:24 3,6 C 2,8 C 89 % 995,1 hPa 0,0 l/m 0 min 0 min 0,0 UV-I 81 W/m 20,6 km/h (4 Bft)
27.01.2014 12:26 3,6 C 2,8 C 89 % 995,1 hPa 0,0 l/m 0 min 0 min 0,0 UV-I 86 W/m 20,6 km/h (4 Bft)
27.01.2014 12:28 3,6 C 2,8 C 89 % 995,1 hPa 0,0 l/m 0 min 0 min 0,0 UV-I 97 W/m 15,4 km/h (3 Bft)
27.01.2014 12:30 3,6 C 3,3 C 89 % 995,1 hPa 0,0 l/m 0 min 0 min 0,0 UV-I 118 W/m 15,4 km/h (3 Bft)
27.01.2014 12:32 3,6 C 3,3 C 89 % 995,1 hPa 0,0 l/m 0 min 0 min 0,0 UV-I 123 W/m 12,9 km/h (3 Bft)
27.01.2014 12:34 3,6 C 3,3 C 89 % 995,1 hPa 0,0 l/m 0 min 0 min 0,0 UV-I 125 W/m 20,6 km/h (4 Bft)
27.01.2014 12:36 3,7 C 3,3 C 89 % 995,1 hPa 0,0 l/m 0 min 0 min 0,0 UV-I 121 W/m 23,2 km/h (4 Bft)
27.01.2014 12:38 3,7 C 3,3 C 88 % 995,1 hPa 0,0 l/m 0 min 0 min 0,0 UV-I 144 W/m 20,6 km/h (4 Bft)
27.01.2014 12:40 3,7 C 3,3 C 88 % 995,0 hPa 0,0 l/m 0 min 0 min 0,0 UV-I 155 W/m 15,4 km/h (3 Bft)
27.01.2014 12:42 3,7 C 3,3 C 88 % 995,2 hPa 0,0 l/m 0 min 0 min 0,0 UV-I 155 W/m 33,5 km/h (5 Bft)
27.01.2014 12:44 3,7 C 3,3 C 88 % 995,1 hPa 0,0 l/m 0 min 0 min 0,0 UV-I 178 W/m 18,0 km/h (3 Bft)
27.01.2014 12:46 3,8 C 3,3 C 88 % 995,0 hPa 0,0 l/m 2 min 0 min 0,0 UV-I 209 W/m 18,0 km/h (3 Bft)
27.01.2014 12:48 3,8 C 3,9 C 88 % 995,0 hPa 0,0 l/m 2 min 0 min 0,0 UV-I 211 W/m 7,7 km/h (2 Bft)
27.01.2014 12:50 3,9 C 3,9 C 88 % 995,0 hPa 0,0 l/m 2 min 0 min 0,0 UV-I 218 W/m 15,4 km/h (3 Bft)
27.01.2014 12:52 4,0 C 3,9 C 88 % 995,0 hPa 0,0 l/m 2 min 0 min 0,0 UV-I 207 W/m 15,4 km/h (3 Bft)
27.01.2014 12:54 4,0 C 3,9 C 87 % 995,0 hPa 0,0 l/m 0 min 0 min 0,0 UV-I 183 W/m 23,2 km/h (4 Bft)
27.01.2014 12:56 4,1 C 3,9 C 87 % 994,9 hPa 0,0 l/m 2 min 0 min 0,0 UV-I 237 W/m 10,3 km/h (2 Bft)
27.01.2014 12:58 4,1 C 3,3 C 87 % 994,9 hPa 0,0 l/m 0 min 0 min 0,0 UV-I 179 W/m 18,0 km/h (3 Bft)
27.01.2014 13:00 4,2 C 3,3 C 87 % 994,9 hPa 0,0 l/m 2 min 0 min 0,0 UV-I 255 W/m 18,0 km/h (3 Bft)
27.01.2014 13:02 4,2 C 3,3 C 87 % 994,9 hPa 0,0 l/m 2 min 0 min 0,0 UV-I 229 W/m 20,6 km/h (4 Bft)
27.01.2014 13:04 4,2 C 3,3 C 87 % 994,9 hPa 0,0 l/m 0 min 0 min 0,0 UV-I 181 W/m 12,9 km/h (3 Bft)
27.01.2014 13:06 4,2 C 3,3 C 87 % 994,9 hPa 0,0 l/m 0 min 0 min 0,0 UV-I 118 W/m 23,2 km/h (4 Bft)
27.01.2014 13:08 4,2 C 3,3 C 86 % 995,0 hPa 0,0 l/m 0 min 0 min 0,0 UV-I 97 W/m 15,4 km/h (3 Bft)
27.01.2014 13:10 4,2 C 3,3 C 86 % 994,9 hPa 0,0 l/m 0 min 0 min 0,0 UV-I 83 W/m 18,0 km/h (3 Bft)
27.01.2014 13:12 4,2 C 3,3 C 86 % 994,9 hPa 0,0 l/m 0 min 0 min 0,0 UV-I 84 W/m 10,3 km/h (2 Bft)
27.01.2014 13:14 4,2 C 3,3 C 86 % 994,9 hPa 0,0 l/m 0 min 0 min 0,0 UV-I 90 W/m 10,3 km/h (2 Bft)
27.01.2014 13:16 4,3 C 3,3 C 86 % 994,9 hPa 0,0 l/m 0 min 0 min 0,0 UV-I 109 W/m 25,7 km/h (4 Bft)
27.01.2014 13:18 4,3 C 3,9 C 86 % 995,0 hPa 0,0 l/m 0 min 0 min 0,0 UV-I 183 W/m 15,4 km/h (3 Bft)
27.01.2014 13:20 4,4 C 3,9 C 86 % 995,0 hPa 0,0 l/m 0 min 0 min 0,0 UV-I 109 W/m 12,9 km/h (3 Bft)
27.01.2014 13:22 4,4 C 3,9 C 86 % 994,9 hPa 0,0 l/m 0 min 0 min 0,0 UV-I 93 W/m 7,7 km/h (2 Bft)
27.01.2014 13:24 4,5 C 3,9 C 86 % 995,0 hPa 0,0 l/m 0 min 0 min 0,0 UV-I 125 W/m 23,2 km/h (4 Bft)
27.01.2014 13:26 4,6 C 3,9 C 85 % 995,0 hPa 0,0 l/m 0 min 0 min 0,0 UV-I 130 W/m 25,7 km/h (4 Bft)
27.01.2014 13:28 4,7 C 3,9 C 85 % 995,0 hPa 0,0 l/m 2 min 0 min 0,0 UV-I 288 W/m 5,1 km/h (1 Bft)
27.01.2014 13:30 4,9 C 4,4 C 84 % 994,9 hPa 0,0 l/m 2 min 0 min 0,0 UV-I 288 W/m 0,0 km/h (0 Bft)
27.01.2014 13:32 5,1 C 4,4 C 84 % 994,8 hPa 0,0 l/m 2 min 0 min 0,0 UV-I 195 W/m 10,3 km/h (2 Bft)
27.01.2014 13:34 5,3 C 5,0 C 84 % 994,8 hPa 0,0 l/m 0 min 0 min 0,0 UV-I 179 W/m 18,0 km/h (3 Bft)
27.01.2014 13:36 5,3 C 5,0 C 82 % 994,8 hPa 0,0 l/m 0 min 0 min 0,0 UV-I 163 W/m 18,0 km/h (3 Bft)
27.01.2014 13:38 5,3 C 4,4 C 81 % 994,9 hPa 0,0 l/m 2 min 0 min 0,0 UV-I 366 W/m 30,9 km/h (5 Bft)
27.01.2014 13:40 5,3 C 4,4 C 80 % 994,8 hPa 0,0 l/m 0 min 0 min 0,0 UV-I 178 W/m 7,7 km/h (2 Bft)
27.01.2014 13:42 5,2 C 4,4 C 80 % 994,7 hPa 0,0 l/m 0 min 0 min 0,0 UV-I 165 W/m 18,0 km/h (3 Bft)
27.01.2014 13:44 5,2 C 4,4 C 79 % 994,8 hPa 0,0 l/m 0 min 0 min 0,0 UV-I 163 W/m 15,4 km/h (3 Bft)
27.01.2014 13:46 5,1 C 4,4 C 79 % 994,7 hPa 0,0 l/m 2 min 0 min 0,0 UV-I 260 W/m 28,3 km/h (4 Bft)
27.01.2014 13:48 5,2 C 5,0 C 80 % 994,7 hPa 0,0 l/m 2 min 0 min 0,0 UV-I 429 W/m 28,3 km/h (4 Bft)
27.01.2014 13:50 5,3 C 5,0 C 80 % 994,6 hPa 0,0 l/m 2 min 0 min 0,0 UV-I 346 W/m 18,0 km/h (3 Bft)
27.01.2014 13:52 5,4 C 5,0 C 80 % 994,6 hPa 0,0 l/m 2 min 0 min 0,0 UV-I 369 W/m 18,0 km/h (3 Bft)
27.01.2014 13:54 5,4 C 5,0 C 80 % 994,5 hPa 0,0 l/m 0 min 0 min 0,0 UV-I 179 W/m 5,1 km/h (1 Bft)
27.01.2014 13:56 5,4 C 5,0 C 80 % 994,5 hPa 0,0 l/m 0 min 0 min 0,0 UV-I 158 W/m 18,0 km/h (3 Bft)
27.01.2014 13:58 5,3 C 4,4 C 79 % 994,5 hPa 0,0 l/m 0 min 0 min 0,0 UV-I 156 W/m 20,6 km/h (4 Bft)
27.01.2014 14:00 5,3 C 4,4 C 80 % 994,5 hPa 0,0 l/m 0 min 0 min 0,0 UV-I 100 W/m 23,2 km/h (4 Bft)
27.01.2014 14:02 5,2 C 4,4 C 80 % 994,5 hPa 0,0 l/m 0 min 0 min 0,0 UV-I 86 W/m 25,7 km/h (4 Bft)
27.01.2014 14:04 5,1 C 4,4 C 80 % 994,5 hPa 0,0 l/m 0 min 0 min 0,0 UV-I 76 W/m 12,9 km/h (3 Bft)
27.01.2014 14:06 5,1 C 3,9 C 80 % 994,6 hPa 0,0 l/m 0 min 0 min 0,0 UV-I 69 W/m 15,4 km/h (3 Bft)
27.01.2014 14:08 5,0 C 3,9 C 81 % 994,5 hPa 0,0 l/m 0 min 0 min 0,0 UV-I 67 W/m 28,3 km/h (4 Bft)
27.01.2014 14:10 4,9 C 3,9 C 81 % 994,8 hPa 0,0 l/m 0 min 0 min 0,0 UV-I 90 W/m 28,3 km/h (4 Bft)
27.01.2014 14:12 4,9 C 3,9 C 81 % 994,5 hPa 0,0 l/m 0 min 0 min 0,0 UV-I 86 W/m 12,9 km/h (3 Bft)
27.01.2014 14:14 4,8 C 3,9 C 81 % 994,4 hPa 0,0 l/m 0 min 0 min 0,0 UV-I 93 W/m 12,9 km/h (3 Bft)
27.01.2014 14:16 4,8 C 3,9 C 81 % 994,5 hPa 0,0 l/m 0 min 0 min 0,0 UV-I 121 W/m 23,2 km/h (4 Bft)
27.01.2014 14:18 4,8 C 3,9 C 81 % 994,4 hPa 0,0 l/m 0 min 0 min 0,0 UV-I 137 W/m 25,7 km/h (4 Bft)
27.01.2014 14:20 4,9 C 4,4 C 81 % 994,4 hPa 0,0 l/m 2 min 0 min 0,0 UV-I 294 W/m 18,0 km/h (3 Bft)
27.01.2014 14:22 5,0 C 4,4 C 81 % 994,4 hPa 0,0 l/m 2 min 0 min 0,0 UV-I 294 W/m 18,0 km/h (3 Bft)
27.01.2014 14:24 5,0 C 4,4 C 80 % 994,5 hPa 0,0 l/m 0 min 0 min 0,0 UV-I 134 W/m 25,7 km/h (4 Bft)
27.01.2014 14:26 5,0 C 4,4 C 80 % 994,4 hPa 0,0 l/m 0 min 0 min 0,0 UV-I 148 W/m 20,6 km/h (4 Bft)
27.01.2014 14:28 5,0 C 4,4 C 80 % 994,4 hPa 0,0 l/m 0 min 0 min 0,0 UV-I 142 W/m 15,4 km/h (3 Bft)
27.01.2014 14:30 5,1 C 4,4 C 80 % 994,4 hPa 0,0 l/m 2 min 0 min 0,0 UV-I 174 W/m 5,1 km/h (1 Bft)
27.01.2014 14:32 5,1 C 4,4 C 80 % 994,4 hPa 0,0 l/m 0 min 0 min 0,0 UV-I 118 W/m 10,3 km/h (2 Bft)
27.01.2014 14:34 5,1 C 4,4 C 80 % 994,4 hPa 0,0 l/m 0 min 0 min 0,0 UV-I 95 W/m 20,6 km/h (4 Bft)
27.01.2014 14:36 5,0 C 3,9 C 80 % 994,5 hPa 0,0 l/m 0 min 0 min 0,0 UV-I 90 W/m 15,4 km/h (3 Bft)
27.01.2014 14:38 5,0 C 3,9 C 80 % 994,4 hPa 0,0 l/m 0 min 0 min 0,0 UV-I 86 W/m 20,6 km/h (4 Bft)
27.01.2014 14:40 4,9 C 3,9 C 80 % 994,4 hPa 0,0 l/m 0 min 0 min 0,0 UV-I 84 W/m 15,4 km/h (3 Bft)
27.01.2014 14:42 4,9 C 3,9 C 80 % 994,4 hPa 0,0 l/m 0 min 0 min 0,0 UV-I 93 W/m 18,0 km/h (3 Bft)
27.01.2014 14:44 4,8 C 3,9 C 80 % 994,3 hPa 0,0 l/m 0 min 0 min 0,0 UV-I 93 W/m 12,9 km/h (3 Bft)
27.01.2014 14:46 4,8 C 3,9 C 80 % 994,3 hPa 0,0 l/m 0 min 0 min 0,0 UV-I 98 W/m 18,0 km/h (3 Bft)
27.01.2014 14:48 4,8 C 3,9 C 80 % 994,4 hPa 0,0 l/m 0 min 0 min 0,0 UV-I 104 W/m 15,4 km/h (3 Bft)
27.01.2014 14:50 4,8 C 3,9 C 81 % 994,4 hPa 0,0 l/m 0 min 0 min 0,0 UV-I 105 W/m 15,4 km/h (3 Bft)
27.01.2014 14:52 4,8 C 3,9 C 81 % 994,4 hPa 0,0 l/m 0 min 0 min 0,0 UV-I 109 W/m 10,3 km/h (2 Bft)
27.01.2014 14:54 4,8 C 3,9 C 81 % 994,3 hPa 0,0 l/m 0 min 0 min 0,0 UV-I 113 W/m 0,0 km/h (0 Bft)
27.01.2014 14:56 4,8 C 3,9 C 81 % 994,4 hPa 0,0 l/m 0 min 0 min 0,0 UV-I 114 W/m 5,1 km/h (1 Bft)
27.01.2014 14:58 4,8 C 3,9 C 81 % 994,4 hPa 0,0 l/m 0 min 0 min 0,0 UV-I 116 W/m 10,3 km/h (2 Bft)
27.01.2014 15:00 4,7 C 3,9 C 80 % 994,4 hPa 0,0 l/m 0 min 0 min 0,0 UV-I 121 W/m 33,5 km/h (5 Bft)
27.01.2014 15:02 4,7 C 3,9 C 81 % 994,4 hPa 0,0 l/m 0 min 0 min 0,0 UV-I 116 W/m 10,3 km/h (2 Bft)
27.01.2014 15:04 4,7 C 3,9 C 80 % 994,4 hPa 0,0 l/m 0 min 0 min 0,0 UV-I 104 W/m 10,3 km/h (2 Bft)
27.01.2014 15:06 4,7 C 3,9 C 80 % 994,4 hPa 0,0 l/m 0 min 0 min 0,0 UV-I 91 W/m 15,4 km/h (3 Bft)
27.01.2014 15:08 4,7 C 3,9 C 80 % 994,4 hPa 0,0 l/m 0 min 0 min 0,0 UV-I 88 W/m 0,0 km/h (0 Bft)
27.01.2014 15:10 4,7 C 3,9 C 81 % 994,4 hPa 0,0 l/m 0 min 0 min 0,0 UV-I 79 W/m 7,7 km/h (2 Bft)
27.01.2014 15:12 4,7 C 3,9 C 81 % 994,4 hPa 0,0 l/m 0 min 0 min 0,0 UV-I 83 W/m 12,9 km/h (3 Bft)
27.01.2014 15:14 4,7 C 3,9 C 81 % 994,3 hPa 0,0 l/m 0 min 0 min 0,0 UV-I 81 W/m 7,7 km/h (2 Bft)
27.01.2014 15:16 4,7 C 3,9 C 81 % 994,3 hPa 0,0 l/m 0 min 0 min 0,0 UV-I 88 W/m 10,3 km/h (2 Bft)
27.01.2014 15:18 4,7 C 3,9 C 81 % 994,3 hPa 0,0 l/m 0 min 0 min 0,0 UV-I 81 W/m 12,9 km/h (3 Bft)
27.01.2014 15:20 4,7 C 3,9 C 81 % 994,2 hPa 0,0 l/m 0 min 0 min 0,0 UV-I 77 W/m 2,6 km/h (1 Bft)
27.01.2014 15:22 4,8 C 3,9 C 81 % 994,3 hPa 0,0 l/m 0 min 0 min 0,0 UV-I 74 W/m 2,6 km/h (1 Bft)
27.01.2014 15:24 4,8 C 3,9 C 81 % 994,3 hPa 0,0 l/m 0 min 0 min 0,0 UV-I 67 W/m 10,3 km/h (2 Bft)
27.01.2014 15:26 4,8 C 3,9 C 81 % 994,4 hPa 0,0 l/m 0 min 0 min 0,0 UV-I 63 W/m 7,7 km/h (2 Bft)
27.01.2014 15:28 4,8 C 3,9 C 81 % 994,3 hPa 0,0 l/m 0 min 0 min 0,0 UV-I 60 W/m 7,7 km/h (2 Bft)
27.01.2014 15:30 4,8 C 3,9 C 81 % 994,3 hPa 0,0 l/m 0 min 0 min 0,0 UV-I 62 W/m 5,1 km/h (1 Bft)
27.01.2014 15:32 4,8 C 3,9 C 81 % 994,2 hPa 0,0 l/m 0 min 0 min 0,0 UV-I 69 W/m 15,4 km/h (3 Bft)
27.01.2014 15:34 4,8 C 3,9 C 80 % 994,2 hPa 0,0 l/m 0 min 0 min 0,0 UV-I 86 W/m 25,7 km/h (4 Bft)
27.01.2014 15:36 4,8 C 3,9 C 80 % 994,2 hPa 0,0 l/m 0 min 0 min 0,0 UV-I 93 W/m 18,0 km/h (3 Bft)
27.01.2014 15:38 4,8 C 3,9 C 80 % 994,2 hPa 0,0 l/m 0 min 0 min 0,0 UV-I 84 W/m 7,7 km/h (2 Bft)
27.01.2014 15:40 4,8 C 3,9 C 80 % 994,2 hPa 0,0 l/m 0 min 0 min 0,0 UV-I 77 W/m 5,1 km/h (1 Bft)
27.01.2014 15:42 4,8 C 3,9 C 80 % 994,2 hPa 0,0 l/m 0 min 0 min 0,0 UV-I 83 W/m 12,9 km/h (3 Bft)
27.01.2014 15:44 4,8 C 3,9 C 80 % 994,2 hPa 0,0 l/m 0 min 0 min 0,0 UV-I 77 W/m 10,3 km/h (2 Bft)
27.01.2014 15:46 4,8 C 3,9 C 80 % 994,2 hPa 0,0 l/m 0 min 0 min 0,0 UV-I 74 W/m 0,0 km/h (0 Bft)
27.01.2014 15:48 4,8 C 3,9 C 80 % 994,2 hPa 0,0 l/m 0 min 0 min 0,0 UV-I 69 W/m 7,7 km/h (2 Bft)
27.01.2014 15:50 4,8 C 3,9 C 80 % 994,1 hPa 0,0 l/m 0 min 0 min 0,0 UV-I 62 W/m 10,3 km/h (2 Bft)
27.01.2014 15:52 4,7 C 3,9 C 80 % 994,1 hPa 0,0 l/m 0 min 0 min 0,0 UV-I 54 W/m 12,9 km/h (3 Bft)
27.01.2014 15:54 4,8 C 3,9 C 80 % 994,1 hPa 0,0 l/m 0 min 0 min 0,0 UV-I 53 W/m 18,0 km/h (3 Bft)
27.01.2014 15:56 4,8 C 3,9 C 80 % 994,1 hPa 0,0 l/m 0 min 0 min 0,0 UV-I 47 W/m 10,3 km/h (2 Bft)
27.01.2014 15:58 4,8 C 3,9 C 80 % 994,2 hPa 0,0 l/m 0 min 0 min 0,0 UV-I 39 W/m 10,3 km/h (2 Bft)
27.01.2014 16:00 4,8 C 3,9 C 80 % 994,1 hPa 0,0 l/m 0 min 0 min 0,0 UV-I 32 W/m 7,7 km/h (2 Bft)
27.01.2014 16:02 4,8 C 3,9 C 80 % 994,1 hPa 0,0 l/m 0 min 0 min 0,0 UV-I 32 W/m 15,4 km/h (3 Bft)
27.01.2014 16:04 4,8 C 3,9 C 80 % 994,2 hPa 0,0 l/m 0 min 0 min 0,0 UV-I 32 W/m 2,6 km/h (1 Bft)
27.01.2014 16:06 4,8 C 3,9 C 80 % 994,1 hPa 0,0 l/m 0 min 0 min 0,0 UV-I 28 W/m 12,9 km/h (3 Bft)
27.01.2014 16:08 4,8 C 3,9 C 80 % 994,2 hPa 0,0 l/m 0 min 0 min 0,0 UV-I 26 W/m 7,7 km/h (2 Bft)
27.01.2014 16:10 4,8 C 3,3 C 80 % 994,2 hPa 0,0 l/m 0 min 0 min 0,0 UV-I 21 W/m 12,9 km/h (3 Bft)
27.01.2014 16:12 4,8 C 3,3 C 80 % 994,3 hPa 0,0 l/m 0 min 0 min 0,0 UV-I 19 W/m 12,9 km/h (3 Bft)
27.01.2014 16:14 4,8 C 3,3 C 80 % 994,3 hPa 0,0 l/m 0 min 0 min 0,0 UV-I 18 W/m 20,6 km/h (4 Bft)
27.01.2014 16:16 4,8 C 3,3 C 80 % 994,2 hPa 0,0 l/m 0 min 0 min 0,0 UV-I 16 W/m 10,3 km/h (2 Bft)
27.01.2014 16:18 4,8 C 3,3 C 80 % 994,3 hPa 0,0 l/m 0 min 0 min 0,0 UV-I 16 W/m 10,3 km/h (2 Bft)
27.01.2014 16:20 4,8 C 3,3 C 80 % 994,3 hPa 0,0 l/m 0 min 0 min 0,0 UV-I 16 W/m 7,7 km/h (2 Bft)
27.01.2014 16:22 4,8 C 3,3 C 81 % 994,3 hPa 0,0 l/m 0 min 0 min 0,0 UV-I 18 W/m 10,3 km/h (2 Bft)
27.01.2014 16:24 4,7 C 3,3 C 81 % 994,3 hPa 0,0 l/m 0 min 0 min 0,0 UV-I 25 W/m 7,7 km/h (2 Bft)
27.01.2014 16:26 4,7 C 3,3 C 81 % 994,3 hPa 0,0 l/m 0 min 0 min 0,0 UV-I 30 W/m 10,3 km/h (2 Bft)
27.01.2014 16:28 4,7 C 3,3 C 81 % 994,2 hPa 0,0 l/m 0 min 0 min 0,0 UV-I 28 W/m 12,9 km/h (3 Bft)
27.01.2014 16:30 4,7 C 3,3 C 81 % 994,1 hPa 0,0 l/m 0 min 0 min 0,0 UV-I 28 W/m 0,0 km/h (0 Bft)
27.01.2014 16:32 4,7 C 3,3 C 81 % 994,2 hPa 0,0 l/m 0 min 0 min 0,0 UV-I 28 W/m 20,6 km/h (4 Bft)
27.01.2014 16:34 4,7 C 3,3 C 81 % 994,1 hPa 0,0 l/m 0 min 0 min 0,0 UV-I 23 W/m 23,2 km/h (4 Bft)
27.01.2014 16:36 4,7 C 3,3 C 81 % 994,2 hPa 0,0 l/m 0 min 0 min 0,0 UV-I 19 W/m 15,4 km/h (3 Bft)
27.01.2014 16:38 4,8 C 3,3 C 80 % 994,2 hPa 0,0 l/m 0 min 0 min 0,0 UV-I 16 W/m 10,3 km/h (2 Bft)
27.01.2014 16:40 4,7 C 3,3 C 80 % 994,2 hPa 0,0 l/m 0 min 0 min 0,0 UV-I 12 W/m 18,0 km/h (3 Bft)
27.01.2014 16:42 4,8 C 3,3 C 80 % 994,1 hPa 0,0 l/m 0 min 0 min 0,0 UV-I 9 W/m 15,4 km/h (3 Bft)
27.01.2014 16:44 4,7 C 3,3 C 80 % 994,1 hPa 0,0 l/m 0 min 0 min 0,0 UV-I 7 W/m 18,0 km/h (3 Bft)
27.01.2014 16:46 4,7 C 3,3 C 80 % 994,0 hPa 0,0 l/m 0 min 0 min 0,0 UV-I 7 W/m 0,0 km/h (0 Bft)
27.01.2014 16:48 4,7 C 3,3 C 80 % 994,0 hPa 0,0 l/m 0 min 0 min 0,0 UV-I 5 W/m 10,3 km/h (2 Bft)
27.01.2014 16:50 4,7 C 3,3 C 80 % 994,0 hPa 0,0 l/m 0 min 0 min 0,0 UV-I 5 W/m 7,7 km/h (2 Bft)
27.01.2014 16:52 4,7 C 3,3 C 80 % 994,1 hPa 0,0 l/m 0 min 0 min 0,0 UV-I 5 W/m 20,6 km/h (4 Bft)
27.01.2014 16:54 4,7 C 3,3 C 81 % 994,1 hPa 0,0 l/m 0 min 0 min 0,0 UV-I 5 W/m 12,9 km/h (3 Bft)
27.01.2014 16:56 4,7 C 3,3 C 80 % 994,1 hPa 0,0 l/m 0 min 0 min 0,0 UV-I 5 W/m 15,4 km/h (3 Bft)
27.01.2014 16:58 4,7 C 3,3 C 80 % 994,1 hPa 0,0 l/m 0 min 0 min 0,0 UV-I 5 W/m 10,3 km/h (2 Bft)
27.01.2014 17:00 4,7 C 3,3 C 80 % 994,0 hPa 0,0 l/m 0 min 0 min 0,0 UV-I 0 W/m 18,0 km/h (3 Bft)
27.01.2014 17:02 4,7 C 3,3 C 80 % 994,1 hPa 0,0 l/m 0 min 0 min 0,0 UV-I 0 W/m 15,4 km/h (3 Bft)
27.01.2014 17:04 4,7 C 3,3 C 80 % 994,1 hPa 0,0 l/m 0 min 0 min 0,0 UV-I 0 W/m 18,0 km/h (3 Bft)
27.01.2014 17:06 4,7 C 3,3 C 80 % 994,2 hPa 0,0 l/m 0 min 0 min 0,0 UV-I 0 W/m 15,4 km/h (3 Bft)
27.01.2014 17:08 4,7 C 3,3 C 80 % 994,2 hPa 0,0 l/m 0 min 0 min 0,0 UV-I 0 W/m 15,4 km/h (3 Bft)
27.01.2014 17:10 4,7 C 3,3 C 80 % 994,1 hPa 0,0 l/m 0 min 0 min 0,0 UV-I 0 W/m 15,4 km/h (3 Bft)
27.01.2014 17:12 4,7 C 3,3 C 80 % 994,2 hPa 0,0 l/m 0 min 0 min 0,0 UV-I 0 W/m 15,4 km/h (3 Bft)
27.01.2014 17:14 4,7 C 3,3 C 80 % 994,1 hPa 0,0 l/m 0 min 0 min 0,0 UV-I 0 W/m 12,9 km/h (3 Bft)
27.01.2014 17:16 4,7 C 3,3 C 80 % 994,1 hPa 0,0 l/m 0 min 0 min 0,0 UV-I 0 W/m 15,4 km/h (3 Bft)
27.01.2014 17:18 4,7 C 3,3 C 80 % 994,1 hPa 0,0 l/m 0 min 0 min 0,0 UV-I 0 W/m 18,0 km/h (3 Bft)
27.01.2014 17:20 4,7 C 3,3 C 80 % 994,2 hPa 0,0 l/m 0 min 0 min 0,0 UV-I 0 W/m 20,6 km/h (4 Bft)
27.01.2014 17:22 4,7 C 3,3 C 80 % 994,2 hPa 0,0 l/m 0 min 0 min 0,0 UV-I 0 W/m 7,7 km/h (2 Bft)
27.01.2014 17:24 4,7 C 3,3 C 80 % 994,2 hPa 0,0 l/m 0 min 0 min 0,0 UV-I 0 W/m 2,6 km/h (1 Bft)
27.01.2014 17:26 4,7 C 3,3 C 80 % 994,2 hPa 0,0 l/m 0 min 0 min 0,0 UV-I 0 W/m 10,3 km/h (2 Bft)
27.01.2014 17:28 4,7 C 3,3 C 80 % 994,2 hPa 0,0 l/m 0 min 0 min 0,0 UV-I 0 W/m 12,9 km/h (3 Bft)
27.01.2014 17:30 4,7 C 3,3 C 80 % 994,2 hPa 0,0 l/m 0 min 0 min 0,0 UV-I 0 W/m 12,9 km/h (3 Bft)
27.01.2014 17:32 4,7 C 3,3 C 80 % 994,2 hPa 0,0 l/m 0 min 0 min 0,0 UV-I 0 W/m 18,0 km/h (3 Bft)
27.01.2014 17:34 4,7 C 3,3 C 80 % 994,2 hPa 0,0 l/m 0 min 0 min 0,0 UV-I 0 W/m 15,4 km/h (3 Bft)
27.01.2014 17:36 4,7 C 3,3 C 80 % 994,2 hPa 0,0 l/m 0 min 0 min 0,0 UV-I 0 W/m 10,3 km/h (2 Bft)
27.01.2014 17:38 4,7 C 3,3 C 80 % 994,2 hPa 0,0 l/m 0 min 0 min 0,0 UV-I 0 W/m 0,0 km/h (0 Bft)
27.01.2014 17:40 4,7 C 3,3 C 80 % 994,2 hPa 0,0 l/m 0 min 0 min 0,0 UV-I 0 W/m 7,7 km/h (2 Bft)
27.01.2014 17:42 4,7 C 3,3 C 80 % 994,2 hPa 0,0 l/m 0 min 0 min 0,0 UV-I 0 W/m 7,7 km/h (2 Bft)
27.01.2014 17:44 4,7 C 3,3 C 80 % 994,2 hPa 0,0 l/m 0 min 0 min 0,0 UV-I 0 W/m 0,0 km/h (0 Bft)
27.01.2014 17:46 4,7 C 3,3 C 80 % 994,2 hPa 0,0 l/m 0 min 0 min 0,0 UV-I 0 W/m 7,7 km/h (2 Bft)
27.01.2014 17:48 4,7 C 3,3 C 80 % 994,2 hPa 0,0 l/m 0 min 0 min 0,0 UV-I 0 W/m 10,3 km/h (2 Bft)
27.01.2014 17:50 4,7 C 3,3 C 80 % 994,2 hPa 0,0 l/m 0 min 0 min 0,0 UV-I 0 W/m 15,4 km/h (3 Bft)
27.01.2014 17:52 4,7 C 3,3 C 80 % 994,2 hPa 0,0 l/m 0 min 0 min 0,0 UV-I 0 W/m 7,7 km/h (2 Bft)
27.01.2014 17:54 4,7 C 3,3 C 81 % 994,3 hPa 0,0 l/m 0 min 0 min 0,0 UV-I 0 W/m 15,4 km/h (3 Bft)
27.01.2014 17:56 4,7 C 3,3 C 80 % 994,3 hPa 0,0 l/m 0 min 0 min 0,0 UV-I 0 W/m 12,9 km/h (3 Bft)
27.01.2014 17:58 4,7 C 3,3 C 80 % 994,3 hPa 0,0 l/m 0 min 0 min 0,0 UV-I 0 W/m 20,6 km/h (4 Bft)
27.01.2014 18:00 4,7 C 3,3 C 80 % 994,3 hPa 0,0 l/m 0 min 0 min 0,0 UV-I 0 W/m 7,7 km/h (2 Bft)
27.01.2014 18:02 4,7 C 3,3 C 80 % 994,3 hPa 0,0 l/m 0 min 0 min 0,0 UV-I 0 W/m 15,4 km/h (3 Bft)
27.01.2014 18:04 4,7 C 3,3 C 80 % 994,4 hPa 0,0 l/m 0 min 0 min 0,0 UV-I 0 W/m 2,6 km/h (1 Bft)
27.01.2014 18:06 4,7 C 3,3 C 80 % 994,3 hPa 0,0 l/m 0 min 0 min 0,0 UV-I 0 W/m 5,1 km/h (1 Bft)
27.01.2014 18:08 4,7 C 3,3 C 80 % 994,4 hPa 0,0 l/m 0 min 0 min 0,0 UV-I 0 W/m 12,9 km/h (3 Bft)
27.01.2014 18:10 4,7 C 3,3 C 80 % 994,4 hPa 0,0 l/m 0 min 0 min 0,0 UV-I 0 W/m 0,0 km/h (0 Bft)
27.01.2014 18:12 4,7 C 3,3 C 80 % 994,4 hPa 0,0 l/m 0 min 0 min 0,0 UV-I 0 W/m 10,3 km/h (2 Bft)
27.01.2014 18:14 4,7 C 3,3 C 80 % 994,3 hPa 0,0 l/m 0 min 0 min 0,0 UV-I 0 W/m 5,1 km/h (1 Bft)
27.01.2014 18:16 4,7 C 3,3 C 80 % 994,3 hPa 0,0 l/m 0 min 0 min 0,0 UV-I 0 W/m 10,3 km/h (2 Bft)
27.01.2014 18:18 4,7 C 3,3 C 80 % 994,5 hPa 0,0 l/m 0 min 0 min 0,0 UV-I 0 W/m 12,9 km/h (3 Bft)
27.01.2014 18:20 4,7 C 3,3 C 80 % 994,4 hPa 0,0 l/m 0 min 0 min 0,0 UV-I 0 W/m 0,0 km/h (0 Bft)
27.01.2014 18:22 4,7 C 3,3 C 80 % 994,5 hPa 0,0 l/m 0 min 0 min 0,0 UV-I 0 W/m 18,0 km/h (3 Bft)
27.01.2014 18:24 4,7 C 3,3 C 80 % 994,5 hPa 0,0 l/m 0 min 0 min 0,0 UV-I 0 W/m 12,9 km/h (3 Bft)
27.01.2014 18:26 4,7 C 3,3 C 81 % 994,4 hPa 0,0 l/m 0 min 0 min 0,0 UV-I 0 W/m 10,3 km/h (2 Bft)
27.01.2014 18:28 4,7 C 3,3 C 81 % 994,5 hPa 0,0 l/m 0 min 0 min 0,0 UV-I 0 W/m 18,0 km/h (3 Bft)
27.01.2014 18:30 4,7 C 2,8 C 81 % 994,4 hPa 0,0 l/m 0 min 2 min 0,0 UV-I 0 W/m 10,3 km/h (2 Bft)
27.01.2014 18:32 4,7 C 2,8 C 81 % 994,4 hPa 0,0 l/m 0 min 2 min 0,0 UV-I 0 W/m 15,4 km/h (3 Bft)
27.01.2014 18:34 4,7 C 2,8 C 82 % 994,4 hPa 0,0 l/m 0 min 2 min 0,0 UV-I 0 W/m 15,4 km/h (3 Bft)
27.01.2014 18:36 4,7 C 2,8 C 82 % 994,4 hPa 0,0 l/m 0 min 2 min 0,0 UV-I 0 W/m 12,9 km/h (3 Bft)
27.01.2014 18:38 4,7 C 2,8 C 82 % 994,4 hPa 0,0 l/m 0 min 2 min 0,0 UV-I 0 W/m 25,7 km/h (4 Bft)
27.01.2014 18:40 4,7 C 2,8 C 82 % 994,4 hPa 0,0 l/m 0 min 2 min 0,0 UV-I 0 W/m 18,0 km/h (3 Bft)
27.01.2014 18:42 4,7 C 2,8 C 83 % 994,4 hPa 0,0 l/m 0 min 0 min 0,0 UV-I 0 W/m 12,9 km/h (3 Bft)
27.01.2014 18:44 4,6 C 2,8 C 83 % 994,5 hPa 0,0 l/m 0 min 0 min 0,0 UV-I 0 W/m 20,6 km/h (4 Bft)
27.01.2014 18:46 4,6 C 2,8 C 83 % 994,5 hPa 0,0 l/m 0 min 0 min 0,0 UV-I 0 W/m 25,7 km/h (4 Bft)
27.01.2014 18:48 4,6 C 2,8 C 83 % 994,6 hPa 0,0 l/m 0 min 0 min 0,0 UV-I 0 W/m 18,0 km/h (3 Bft)
27.01.2014 18:50 4,5 C 2,8 C 84 % 994,5 hPa 0,0 l/m 0 min 0 min 0,0 UV-I 0 W/m 15,4 km/h (3 Bft)
27.01.2014 18:52 4,5 C 2,8 C 84 % 994,5 hPa 0,0 l/m 0 min 0 min 0,0 UV-I 0 W/m 18,0 km/h (3 Bft)
27.01.2014 18:54 4,4 C 2,8 C 84 % 994,5 hPa 0,0 l/m 0 min 0 min 0,0 UV-I 0 W/m 12,9 km/h (3 Bft)
27.01.2014 18:56 4,4 C 2,8 C 84 % 994,4 hPa 0,0 l/m 0 min 0 min 0,0 UV-I 0 W/m 2,6 km/h (1 Bft)
27.01.2014 18:58 4,4 C 2,8 C 84 % 994,5 hPa 0,0 l/m 0 min 0 min 0,0 UV-I 0 W/m 10,3 km/h (2 Bft)
27.01.2014 19:00 4,4 C 2,8 C 84 % 994,5 hPa 0,0 l/m 0 min 0 min 0,0 UV-I 0 W/m 0,0 km/h (0 Bft)
27.01.2014 19:02 4,4 C 2,8 C 85 % 994,4 hPa 0,0 l/m 0 min 0 min 0,0 UV-I 0 W/m 7,7 km/h (2 Bft)
27.01.2014 19:04 4,4 C 2,8 C 85 % 994,4 hPa 0,0 l/m 0 min 0 min 0,0 UV-I 0 W/m 15,4 km/h (3 Bft)
27.01.2014 19:06 4,4 C 2,8 C 85 % 994,4 hPa 0,0 l/m 0 min 2 min 0,0 UV-I 0 W/m 2,6 km/h (1 Bft)
27.01.2014 19:08 4,4 C 2,8 C 85 % 994,4 hPa 0,0 l/m 0 min 2 min 0,0 UV-I 0 W/m 18,0 km/h (3 Bft)
27.01.2014 19:10 4,3 C 2,8 C 85 % 994,4 hPa 0,0 l/m 0 min 2 min 0,0 UV-I 0 W/m 10,3 km/h (2 Bft)
27.01.2014 19:12 4,3 C 2,8 C 85 % 994,4 hPa 0,0 l/m 0 min 2 min 0,0 UV-I 0 W/m 10,3 km/h (2 Bft)
27.01.2014 19:14 4,3 C 2,2 C 86 % 994,4 hPa 0,0 l/m 0 min 2 min 0,0 UV-I 0 W/m 7,7 km/h (2 Bft)
27.01.2014 19:16 4,3 C 2,2 C 86 % 994,5 hPa 0,0 l/m 0 min 2 min 0,0 UV-I 0 W/m 0,0 km/h (0 Bft)
27.01.2014 19:18 4,3 C 2,2 C 86 % 994,4 hPa 0,0 l/m 0 min 0 min 0,0 UV-I 0 W/m 15,4 km/h (3 Bft)
27.01.2014 19:20 4,2 C 2,2 C 86 % 994,4 hPa 0,0 l/m 0 min 0 min 0,0 UV-I 0 W/m 5,1 km/h (1 Bft)
27.01.2014 19:22 4,2 C 2,2 C 86 % 994,4 hPa 0,0 l/m 0 min 0 min 0,0 UV-I 0 W/m 10,3 km/h (2 Bft)
27.01.2014 19:24 4,2 C 2,2 C 87 % 994,5 hPa 0,0 l/m 0 min 0 min 0,0 UV-I 0 W/m 2,6 km/h (1 Bft)
27.01.2014 19:26 4,2 C 2,2 C 87 % 994,5 hPa 0,0 l/m 0 min 0 min 0,0 UV-I 0 W/m 5,1 km/h (1 Bft)
27.01.2014 19:28 4,2 C 2,2 C 87 % 994,5 hPa 0,0 l/m 0 min 0 min 0,0 UV-I 0 W/m 2,6 km/h (1 Bft)
27.01.2014 19:30 4,2 C 2,8 C 87 % 994,4 hPa 0,0 l/m 0 min 0 min 0,0 UV-I 0 W/m 15,4 km/h (3 Bft)
27.01.2014 19:32 4,2 C 2,2 C 87 % 994,5 hPa 0,0 l/m 0 min 0 min 0,0 UV-I 0 W/m 18,0 km/h (3 Bft)
27.01.2014 19:34 4,2 C 2,8 C 87 % 994,5 hPa 0,0 l/m 0 min 0 min 0,0 UV-I 0 W/m 10,3 km/h (2 Bft)
27.01.2014 19:36 4,2 C 2,8 C 87 % 994,5 hPa 0,0 l/m 0 min 0 min 0,0 UV-I 0 W/m 15,4 km/h (3 Bft)
27.01.2014 19:38 4,1 C 2,8 C 87 % 994,5 hPa 0,0 l/m 0 min 0 min 0,0 UV-I 0 W/m 7,7 km/h (2 Bft)
27.01.2014 19:40 4,1 C 2,8 C 87 % 994,5 hPa 0,0 l/m 0 min 0 min 0,0 UV-I 0 W/m 12,9 km/h (3 Bft)
27.01.2014 19:42 4,1 C 2,8 C 87 % 994,5 hPa 0,0 l/m 0 min 0 min 0,0 UV-I 0 W/m 5,1 km/h (1 Bft)
27.01.2014 19:44 4,1 C 2,8 C 87 % 994,5 hPa 0,0 l/m 0 min 0 min 0,0 UV-I 0 W/m 0,0 km/h (0 Bft)
27.01.2014 19:46 4,1 C 2,8 C 87 % 994,6 hPa 0,0 l/m 0 min 0 min 0,0 UV-I 0 W/m 2,6 km/h (1 Bft)
27.01.2014 19:48 4,1 C 2,8 C 87 % 994,5 hPa 0,0 l/m 0 min 0 min 0,0 UV-I 0 W/m 7,7 km/h (2 Bft)
27.01.2014 19:50 4,1 C 2,8 C 87 % 994,5 hPa 0,0 l/m 0 min 0 min 0,0 UV-I 0 W/m 10,3 km/h (2 Bft)
27.01.2014 19:52 4,1 C 2,8 C 87 % 994,6 hPa 0,0 l/m 0 min 0 min 0,0 UV-I 0 W/m 10,3 km/h (2 Bft)
27.01.2014 19:54 4,1 C 2,8 C 87 % 994,6 hPa 0,0 l/m 0 min 0 min 0,0 UV-I 0 W/m 10,3 km/h (2 Bft)
27.01.2014 19:56 4,1 C 2,8 C 87 % 994,6 hPa 0,0 l/m 0 min 0 min 0,0 UV-I 0 W/m 10,3 km/h (2 Bft)
27.01.2014 19:58 4,1 C 2,8 C 87 % 994,6 hPa 0,0 l/m 0 min 0 min 0,0 UV-I 0 W/m 7,7 km/h (2 Bft)
27.01.2014 20:00 4,1 C 2,8 C 87 % 994,7 hPa 0,0 l/m 0 min 0 min 0,0 UV-I 0 W/m 12,9 km/h (3 Bft)
27.01.2014 20:02 4,1 C 2,8 C 88 % 994,8 hPa 0,0 l/m 0 min 0 min 0,0 UV-I 0 W/m 10,3 km/h (2 Bft)
27.01.2014 20:04 4,1 C 2,8 C 88 % 994,8 hPa 0,0 l/m 0 min 0 min 0,0 UV-I 0 W/m 10,3 km/h (2 Bft)
27.01.2014 20:06 4,1 C 2,8 C 88 % 994,8 hPa 0,0 l/m 0 min 0 min 0,0 UV-I 0 W/m 7,7 km/h (2 Bft)
27.01.2014 20:08 4,1 C 2,8 C 88 % 994,8 hPa 0,0 l/m 0 min 0 min 0,0 UV-I 0 W/m 5,1 km/h (1 Bft)
27.01.2014 20:10 4,1 C 2,8 C 88 % 994,9 hPa 0,0 l/m 0 min 0 min 0,0 UV-I 0 W/m 10,3 km/h (2 Bft)
27.01.2014 20:12 4,1 C 2,8 C 88 % 994,8 hPa 0,0 l/m 0 min 0 min 0,0 UV-I 0 W/m 7,7 km/h (2 Bft)
27.01.2014 20:14 4,1 C 2,8 C 88 % 995,0 hPa 0,0 l/m 0 min 0 min 0,0 UV-I 0 W/m 12,9 km/h (3 Bft)
27.01.2014 20:16 4,1 C 2,8 C 88 % 995,0 hPa 0,0 l/m 0 min 0 min 0,0 UV-I 0 W/m 5,1 km/h (1 Bft)
27.01.2014 20:18 4,1 C 2,8 C 87 % 995,0 hPa 0,0 l/m 0 min 0 min 0,0 UV-I 0 W/m 7,7 km/h (2 Bft)
27.01.2014 20:20 4,1 C 2,8 C 87 % 995,0 hPa 0,0 l/m 0 min 0 min 0,0 UV-I 0 W/m 20,6 km/h (4 Bft)
27.01.2014 20:22 4,1 C 2,8 C 87 % 994,9 hPa 0,0 l/m 0 min 0 min 0,0 UV-I 0 W/m 7,7 km/h (2 Bft)
27.01.2014 20:24 4,1 C 2,8 C 87 % 995,0 hPa 0,0 l/m 0 min 0 min 0,0 UV-I 0 W/m 18,0 km/h (3 Bft)
27.01.2014 20:26 4,1 C 2,8 C 87 % 995,0 hPa 0,0 l/m 0 min 0 min 0,0 UV-I 0 W/m 10,3 km/h (2 Bft)
27.01.2014 20:28 4,1 C 2,8 C 87 % 995,0 hPa 0,0 l/m 0 min 0 min 0,0 UV-I 0 W/m 12,9 km/h (3 Bft)
27.01.2014 20:30 4,1 C 2,8 C 87 % 995,0 hPa 0,0 l/m 0 min 0 min 0,0 UV-I 0 W/m 10,3 km/h (2 Bft)
27.01.2014 20:32 4,1 C 2,8 C 87 % 995,1 hPa 0,0 l/m 0 min 0 min 0,0 UV-I 0 W/m 12,9 km/h (3 Bft)
27.01.2014 20:34 4,1 C 2,8 C 87 % 995,0 hPa 0,0 l/m 0 min 0 min 0,0 UV-I 0 W/m 10,3 km/h (2 Bft)
27.01.2014 20:36 4,1 C 2,8 C 87 % 995,1 hPa 0,0 l/m 0 min 0 min 0,0 UV-I 0 W/m 5,1 km/h (1 Bft)
27.01.2014 20:38 4,1 C 2,8 C 87 % 995,0 hPa 0,0 l/m 0 min 0 min 0,0 UV-I 0 W/m 7,7 km/h (2 Bft)
27.01.2014 20:40 4,2 C 2,8 C 87 % 995,1 hPa 0,0 l/m 0 min 0 min 0,0 UV-I 0 W/m 10,3 km/h (2 Bft)
27.01.2014 20:42 4,1 C 2,8 C 87 % 995,0 hPa 0,0 l/m 0 min 0 min 0,0 UV-I 0 W/m 18,0 km/h (3 Bft)
27.01.2014 20:44 4,2 C 2,8 C 87 % 995,1 hPa 0,0 l/m 0 min 0 min 0,0 UV-I 0 W/m 12,9 km/h (3 Bft)
27.01.2014 20:46 4,2 C 2,8 C 87 % 995,1 hPa 0,0 l/m 0 min 0 min 0,0 UV-I 0 W/m 10,3 km/h (2 Bft)
27.01.2014 20:48 4,2 C 2,8 C 87 % 995,1 hPa 0,0 l/m 0 min 0 min 0,0 UV-I 0 W/m 12,9 km/h (3 Bft)
27.01.2014 20:50 4,2 C 2,8 C 92 % 995,1 hPa 0,0 l/m 0 min 0 min 0,0 UV-I 0 W/m 15,4 km/h (3 Bft)
27.01.2014 20:52 4,2 C 2,8 C 87 % 995,1 hPa 0,0 l/m 0 min 0 min 0,0 UV-I 0 W/m 12,9 km/h (3 Bft)
27.01.2014 20:54 4,2 C 2,8 C 87 % 995,1 hPa 0,0 l/m 0 min 0 min 0,0 UV-I 0 W/m 15,4 km/h (3 Bft)
27.01.2014 20:56 4,2 C 2,8 C 87 % 995,1 hPa 0,0 l/m 0 min 0 min 0,0 UV-I 0 W/m 12,9 km/h (3 Bft)
27.01.2014 20:58 4,2 C 2,8 C 87 % 995,1 hPa 0,0 l/m 0 min 0 min 0,0 UV-I 0 W/m 7,7 km/h (2 Bft)
27.01.2014 21:00 4,2 C 2,8 C 87 % 995,1 hPa 0,0 l/m 0 min 0 min 0,0 UV-I 0 W/m 5,1 km/h (1 Bft)
27.01.2014 21:02 4,2 C 2,8 C 87 % 995,1 hPa 0,0 l/m 0 min 0 min 0,0 UV-I 0 W/m 18,0 km/h (3 Bft)
27.01.2014 21:04 4,2 C 2,8 C 88 % 995,1 hPa 0,0 l/m 0 min 0 min 0,0 UV-I 0 W/m 18,0 km/h (3 Bft)
27.01.2014 21:06 4,2 C 2,8 C 88 % 995,2 hPa 0,0 l/m 0 min 0 min 0,0 UV-I 0 W/m 20,6 km/h (4 Bft)
27.01.2014 21:08 4,2 C 2,8 C 88 % 995,2 hPa 0,0 l/m 0 min 0 min 0,0 UV-I 0 W/m 12,9 km/h (3 Bft)
27.01.2014 21:10 4,2 C 2,8 C 88 % 995,2 hPa 0,0 l/m 0 min 0 min 0,0 UV-I 0 W/m 12,9 km/h (3 Bft)
27.01.2014 21:12 4,2 C 2,8 C 88 % 995,1 hPa 0,0 l/m 0 min 0 min 0,0 UV-I 0 W/m 7,7 km/h (2 Bft)
27.01.2014 21:14 4,2 C 2,8 C 88 % 995,2 hPa 0,0 l/m 0 min 0 min 0,0 UV-I 0 W/m 5,1 km/h (1 Bft)
27.01.2014 21:16 4,2 C 2,8 C 88 % 995,2 hPa 0,0 l/m 0 min 0 min 0,0 UV-I 0 W/m 7,7 km/h (2 Bft)
27.01.2014 21:18 4,2 C 2,8 C 88 % 995,2 hPa 0,0 l/m 0 min 0 min 0,0 UV-I 0 W/m 7,7 km/h (2 Bft)
27.01.2014 21:20 4,2 C 2,8 C 88 % 995,2 hPa 0,0 l/m 0 min 0 min 0,0 UV-I 0 W/m 7,7 km/h (2 Bft)
27.01.2014 21:22 4,2 C 2,8 C 88 % 995,2 hPa 0,0 l/m 0 min 2 min 0,0 UV-I 0 W/m 7,7 km/h (2 Bft)
27.01.2014 21:24 4,2 C 2,2 C 88 % 995,3 hPa 0,0 l/m 0 min 2 min 0,0 UV-I 0 W/m 10,3 km/h (2 Bft)
27.01.2014 21:26 4,2 C 2,2 C 88 % 995,2 hPa 0,0 l/m 0 min 2 min 0,0 UV-I 0 W/m 7,7 km/h (2 Bft)
27.01.2014 21:28 4,2 C 2,2 C 88 % 995,3 hPa 0,0 l/m 0 min 2 min 0,0 UV-I 0 W/m 12,9 km/h (3 Bft)
27.01.2014 21:30 4,2 C 2,2 C 89 % 995,2 hPa 0,0 l/m 0 min 2 min 0,0 UV-I 0 W/m 2,6 km/h (1 Bft)
27.01.2014 21:32 4,2 C 2,2 C 89 % 995,2 hPa 0,0 l/m 0 min 2 min 0,0 UV-I 0 W/m 10,3 km/h (2 Bft)
27.01.2014 21:34 4,2 C 2,2 C 89 % 995,2 hPa 0,0 l/m 0 min 0 min 0,0 UV-I 0 W/m 10,3 km/h (2 Bft)
27.01.2014 21:36 4,2 C 2,2 C 89 % 995,2 hPa 0,0 l/m 0 min 0 min 0,0 UV-I 0 W/m 7,7 km/h (2 Bft)
27.01.2014 21:38 4,2 C 2,2 C 89 % 995,3 hPa 0,0 l/m 0 min 0 min 0,0 UV-I 0 W/m 5,1 km/h (1 Bft)
27.01.2014 21:40 4,1 C 2,2 C 89 % 995,2 hPa 0,0 l/m 0 min 0 min 0,0 UV-I 0 W/m 12,9 km/h (3 Bft)
27.01.2014 21:42 4,1 C 2,2 C 90 % 995,2 hPa 0,0 l/m 0 min 0 min 0,0 UV-I 0 W/m 5,1 km/h (1 Bft)
27.01.2014 21:44 4,1 C 2,2 C 90 % 995,3 hPa 0,0 l/m 0 min 0 min 0,0 UV-I 0 W/m 0,0 km/h (0 Bft)
27.01.2014 21:46 4,1 C 2,2 C 90 % 995,3 hPa 0,0 l/m 0 min 0 min 0,0 UV-I 0 W/m 2,6 km/h (1 Bft)
27.01.2014 21:48 4,1 C 2,2 C 90 % 995,3 hPa 0,0 l/m 0 min 0 min 0,0 UV-I 0 W/m 10,3 km/h (2 Bft)
27.01.2014 21:50 4,1 C 2,2 C 90 % 995,3 hPa 0,0 l/m 0 min 0 min 0,0 UV-I 0 W/m 2,6 km/h (1 Bft)
27.01.2014 21:52 4,1 C 2,2 C 90 % 995,3 hPa 0,0 l/m 0 min 2 min 0,0 UV-I 0 W/m 10,3 km/h (2 Bft)
27.01.2014 21:54 4,1 C 2,2 C 90 % 995,3 hPa 0,0 l/m 0 min 2 min 0,0 UV-I 0 W/m 10,3 km/h (2 Bft)
27.01.2014 21:56 4,0 C 2,2 C 91 % 995,3 hPa 0,0 l/m 0 min 2 min 0,0 UV-I 0 W/m 7,7 km/h (2 Bft)
27.01.2014 21:58 4,0 C 2,2 C 91 % 995,3 hPa 0,0 l/m 0 min 0 min 0,0 UV-I 0 W/m 0,0 km/h (0 Bft)
27.01.2014 22:00 4,0 C 2,2 C 91 % 995,3 hPa 0,0 l/m 0 min 0 min 0,0 UV-I 0 W/m 0,0 km/h (0 Bft)
27.01.2014 22:02 4,0 C 2,2 C 91 % 995,4 hPa 0,0 l/m 0 min 0 min 0,0 UV-I 0 W/m 10,3 km/h (2 Bft)
27.01.2014 22:04 3,9 C 2,2 C 91 % 995,4 hPa 0,0 l/m 0 min 0 min 0,0 UV-I 0 W/m 2,6 km/h (1 Bft)
27.01.2014 22:06 4,0 C 2,2 C 91 % 995,4 hPa 0,0 l/m 0 min 0 min 0,0 UV-I 0 W/m 2,6 km/h (1 Bft)
27.01.2014 22:08 3,9 C 2,2 C 91 % 995,4 hPa 0,0 l/m 0 min 0 min 0,0 UV-I 0 W/m 10,3 km/h (2 Bft)
27.01.2014 22:10 3,9 C 2,2 C 91 % 995,4 hPa 0,0 l/m 0 min 0 min 0,0 UV-I 0 W/m 10,3 km/h (2 Bft)
27.01.2014 22:12 3,9 C 2,2 C 91 % 995,4 hPa 0,0 l/m 0 min 0 min 0,0 UV-I 0 W/m 10,3 km/h (2 Bft)
27.01.2014 22:14 3,9 C 2,2 C 91 % 995,4 hPa 0,0 l/m 0 min 0 min 0,0 UV-I 0 W/m 7,7 km/h (2 Bft)
27.01.2014 22:16 3,9 C 2,2 C 91 % 995,4 hPa 0,0 l/m 0 min 0 min 0,0 UV-I 0 W/m 5,1 km/h (1 Bft)
27.01.2014 22:18 3,9 C 2,2 C 91 % 995,5 hPa 0,0 l/m 0 min 0 min 0,0 UV-I 0 W/m 10,3 km/h (2 Bft)
27.01.2014 22:20 3,9 C 2,2 C 91 % 995,5 hPa 0,0 l/m 0 min 0 min 0,0 UV-I 0 W/m 5,1 km/h (1 Bft)
27.01.2014 22:22 3,9 C 2,2 C 91 % 995,5 hPa 0,0 l/m 0 min 0 min 0,0 UV-I 0 W/m 2,6 km/h (1 Bft)
27.01.2014 22:24 3,9 C 2,2 C 91 % 995,6 hPa 0,0 l/m 0 min 0 min 0,0 UV-I 0 W/m 7,7 km/h (2 Bft)
27.01.2014 22:26 3,9 C 2,2 C 92 % 995,6 hPa 0,0 l/m 0 min 0 min 0,0 UV-I 0 W/m 7,7 km/h (2 Bft)
27.01.2014 22:28 3,9 C 2,2 C 92 % 995,6 hPa 0,0 l/m 0 min 0 min 0,0 UV-I 0 W/m 2,6 km/h (1 Bft)
27.01.2014 22:30 3,9 C 2,2 C 92 % 995,6 hPa 0,0 l/m 0 min 0 min 0,0 UV-I 0 W/m 10,3 km/h (2 Bft)
27.01.2014 22:32 3,9 C 2,2 C 92 % 995,6 hPa 0,0 l/m 0 min 0 min 0,0 UV-I 0 W/m 10,3 km/h (2 Bft)
27.01.2014 22:34 3,9 C 2,2 C 92 % 995,6 hPa 0,0 l/m 0 min 0 min 0,0 UV-I 0 W/m 0,0 km/h (0 Bft)
27.01.2014 22:36 3,9 C 2,2 C 92 % 995,5 hPa 0,0 l/m 0 min 0 min 0,0 UV-I 0 W/m 5,1 km/h (1 Bft)
27.01.2014 22:38 3,9 C 2,2 C 92 % 995,5 hPa 0,0 l/m 0 min 0 min 0,0 UV-I 0 W/m 2,6 km/h (1 Bft)
27.01.2014 22:40 3,9 C 2,2 C 92 % 995,5 hPa 0,0 l/m 0 min 0 min 0,0 UV-I 0 W/m 10,3 km/h (2 Bft)
27.01.2014 22:42 3,9 C 2,2 C 92 % 995,5 hPa 0,0 l/m 0 min 0 min 0,0 UV-I 0 W/m 5,1 km/h (1 Bft)
27.01.2014 22:44 3,9 C 2,2 C 92 % 995,5 hPa 0,0 l/m 0 min 0 min 0,0 UV-I 0 W/m 7,7 km/h (2 Bft)
27.01.2014 22:46 3,9 C 2,2 C 92 % 995,4 hPa 0,0 l/m 0 min 0 min 0,0 UV-I 0 W/m 12,9 km/h (3 Bft)
27.01.2014 22:48 3,9 C 2,2 C 92 % 995,4 hPa 0,0 l/m 0 min 0 min 0,0 UV-I 0 W/m 10,3 km/h (2 Bft)
27.01.2014 22:50 3,9 C 2,2 C 92 % 995,5 hPa 0,0 l/m 0 min 0 min 0,0 UV-I 0 W/m 7,7 km/h (2 Bft)
27.01.2014 22:52 3,9 C 2,2 C 92 % 995,5 hPa 0,0 l/m 0 min 0 min 0,0 UV-I 0 W/m 5,1 km/h (1 Bft)
27.01.2014 22:54 3,9 C 2,2 C 92 % 995,5 hPa 0,0 l/m 0 min 0 min 0,0 UV-I 0 W/m 0,0 km/h (0 Bft)
27.01.2014 22:56 4,0 C 2,8 C 92 % 995,6 hPa 0,0 l/m 0 min 0 min 0,0 UV-I 0 W/m 7,7 km/h (2 Bft)
27.01.2014 22:58 3,9 C 2,8 C 92 % 995,6 hPa 0,0 l/m 0 min 0 min 0,0 UV-I 0 W/m 0,0 km/h (0 Bft)
27.01.2014 23:00 4,0 C 2,8 C 92 % 995,6 hPa 0,0 l/m 0 min 0 min 0,0 UV-I 0 W/m 5,1 km/h (1 Bft)
27.01.2014 23:02 4,0 C 2,8 C 92 % 995,6 hPa 0,0 l/m 0 min 0 min 0,0 UV-I 0 W/m 5,1 km/h (1 Bft)
27.01.2014 23:04 4,0 C 2,8 C 92 % 995,6 hPa 0,0 l/m 0 min 0 min 0,0 UV-I 0 W/m 10,3 km/h (2 Bft)
27.01.2014 23:06 4,0 C 2,8 C 92 % 995,5 hPa 0,0 l/m 0 min 0 min 0,0 UV-I 0 W/m 0,0 km/h (0 Bft)
27.01.2014 23:08 4,0 C 2,8 C 92 % 995,6 hPa 0,0 l/m 0 min 0 min 0,0 UV-I 0 W/m 7,7 km/h (2 Bft)
27.01.2014 23:10 4,0 C 2,8 C 92 % 995,5 hPa 0,0 l/m 0 min 0 min 0,0 UV-I 0 W/m 0,0 km/h (0 Bft)
27.01.2014 23:12 4,0 C 2,8 C 92 % 995,5 hPa 0,0 l/m 0 min 0 min 0,0 UV-I 0 W/m 12,9 km/h (3 Bft)
27.01.2014 23:14 4,0 C 2,8 C 92 % 995,5 hPa 0,0 l/m 0 min 0 min 0,0 UV-I 0 W/m 0,0 km/h (0 Bft)
27.01.2014 23:16 4,1 C 2,8 C 92 % 995,6 hPa 0,0 l/m 0 min 0 min 0,0 UV-I 0 W/m 0,0 km/h (0 Bft)
27.01.2014 23:18 4,0 C 2,8 C 92 % 995,6 hPa 0,0 l/m 0 min 0 min 0,0 UV-I 0 W/m 2,6 km/h (1 Bft)
27.01.2014 23:20 4,0 C 2,8 C 92 % 995,6 hPa 0,0 l/m 0 min 0 min 0,0 UV-I 0 W/m 10,3 km/h (2 Bft)
27.01.2014 23:22 4,1 C 2,8 C 92 % 995,6 hPa 0,0 l/m 0 min 0 min 0,0 UV-I 0 W/m 2,6 km/h (1 Bft)
27.01.2014 23:24 4,1 C 2,8 C 92 % 995,6 hPa 0,0 l/m 0 min 0 min 0,0 UV-I 0 W/m 5,1 km/h (1 Bft)
27.01.2014 23:26 4,1 C 2,8 C 92 % 995,6 hPa 0,0 l/m 0 min 0 min 0,0 UV-I 0 W/m 7,7 km/h (2 Bft)
27.01.2014 23:28 4,1 C 2,8 C 92 % 995,6 hPa 0,0 l/m 0 min 0 min 0,0 UV-I 0 W/m 7,7 km/h (2 Bft)
27.01.2014 23:30 4,1 C 2,2 C 92 % 995,6 hPa 0,0 l/m 0 min 0 min 0,0 UV-I 0 W/m 10,3 km/h (2 Bft)
27.01.2014 23:32 4,1 C 2,2 C 92 % 995,6 hPa 0,0 l/m 0 min 0 min 0,0 UV-I 0 W/m 7,7 km/h (2 Bft)
27.01.2014 23:34 4,1 C 2,2 C 92 % 995,7 hPa 0,0 l/m 0 min 0 min 0,0 UV-I 0 W/m 5,1 km/h (1 Bft)
27.01.2014 23:36 4,1 C 2,2 C 91 % 995,7 hPa 0,0 l/m 0 min 0 min 0,0 UV-I 0 W/m 0,0 km/h (0 Bft)
27.01.2014 23:38 4,1 C 2,2 C 91 % 995,7 hPa 0,0 l/m 0 min 0 min 0,0 UV-I 0 W/m 10,3 km/h (2 Bft)
27.01.2014 23:40 4,1 C 2,2 C 91 % 995,7 hPa 0,0 l/m 0 min 0 min 0,0 UV-I 0 W/m 7,7 km/h (2 Bft)
27.01.2014 23:42 4,0 C 2,2 C 91 % 995,7 hPa 0,0 l/m 0 min 0 min 0,0 UV-I 0 W/m 0,0 km/h (0 Bft)
27.01.2014 23:44 4,0 C 2,2 C 91 % 995,8 hPa 0,0 l/m 0 min 0 min 0,0 UV-I 0 W/m 0,0 km/h (0 Bft)
27.01.2014 23:46 4,0 C 2,2 C 91 % 995,8 hPa 0,0 l/m 0 min 0 min 0,0 UV-I 0 W/m 12,9 km/h (3 Bft)
27.01.2014 23:48 4,0 C 2,2 C 91 % 995,8 hPa 0,0 l/m 0 min 0 min 0,0 UV-I 0 W/m 0,0 km/h (0 Bft)
27.01.2014 23:50 4,0 C 2,2 C 91 % 995,8 hPa 0,0 l/m 0 min 0 min 0,0 UV-I 0 W/m 7,7 km/h (2 Bft)
27.01.2014 23:52 4,0 C 2,2 C 91 % 995,8 hPa 0,0 l/m 0 min 0 min 0,0 UV-I 0 W/m 7,7 km/h (2 Bft)
27.01.2014 23:54 4,0 C 2,2 C 91 % 995,8 hPa 0,0 l/m 0 min 0 min 0,0 UV-I 0 W/m 2,6 km/h (1 Bft)
27.01.2014 23:56 4,0 C 2,2 C 91 % 995,9 hPa 0,0 l/m 0 min 0 min 0,0 UV-I 0 W/m 10,3 km/h (2 Bft)
27.01.2014 23:58 4,0 C 2,2 C 91 % 995,9 hPa 0,0 l/m 0 min 0 min 0,0 UV-I 0 W/m 7,7 km/h (2 Bft)
_ Min-Zeit 07:38 07:06 13:44 00:00 - - - - - 00:02
Minimum _ 2,3 C 0,6 C 79 % 989,6 hPa - - - - - 0,0 km/h (0 Bft)
_ Max-Zeit 01:58 13:34 00:36 23:56 02:22 12:46 00:00 00:00 13:48 04:50
Maximum _ 5,7 C 5,0 C 98 % 995,9 hPa 0,4 l/m 2 min 2 min 0,0 UV-I 429 W/m 33,5 km/h
W-SW (5 Bft)
Durchschnitt _ 4,0 C 2,7 C 90 % 993,9 hPa #2,8 l/m #36 min. #2:18 h 0,0 UV-I 85 W/m 11,0 km/h (2 Bft)
© 2014 W. Hausmann